| time (UTC) | temp F | wind direction | speed knots | gust knots | rain 1hr in | rain 24hr in | rain mn in | humidity % | barometer mb |
| 20260504205027 | 72 | 125 | 2.6 | 11.3 | 0.00 | 0.01 | 0.01 | 30 | 1004.1 |
| 20260504204927 | 72 | 318 | 2.6 | 9.6 | 0.00 | 0.01 | 0.01 | 31 | 1004.0 |
| 20260504204827 | 72 | 180 | 2.6 | 9.6 | 0.00 | 0.01 | 0.01 | 31 | 1004.0 |
| 20260504204728 | 72 | 43 | 1.7 | 9.6 | 0.00 | 0.01 | 0.01 | 31 | 1004.0 |
| 20260504204654 | 71 | 309 | 2.6 | 9.6 | 0.00 | 0.01 | 0.01 | 32 | 1003.8 |
| 20260504204641 | 71 | 222 | 1.7 | 9.6 | 0.00 | 0.01 | 0.01 | 33 | 1003.9 |
| 20260504204421 | 71 | 142 | 2.6 | 9.6 | 0.00 | 0.01 | 0.01 | 31 | 1004.0 |
| 20260504204353 | 71 | 294 | 1.7 | 7.8 | 0.00 | 0.01 | 0.01 | 32 | 1004.0 |
| 20260504204322 | 71 | 153 | 1.7 | 8.7 | 0.00 | 0.01 | 0.01 | 32 | 1004.0 |
| 20260504204246 | 71 | 243 | 1.7 | 8.7 | 0.00 | 0.01 | 0.01 | 31 | 1004.0 |
| 20260504204229 | 71 | 294 | 1.7 | 7.8 | 0.00 | 0.01 | 0.01 | 32 | 1004.0 |
| 20260504204040 | 71 | 252 | 1.7 | 7.8 | 0.00 | 0.01 | 0.01 | 32 | 1003.9 |
| 20260504203917 | 71 | 153 | 1.7 | 7.8 | 0.00 | 0.01 | 0.01 | 32 | 1004.0 |
| 20260504203905 | 71 | 197 | 1.7 | 7.8 | 0.00 | 0.01 | 0.01 | 32 | 1003.9 |
| 20260504203853 | 71 | 225 | 1.7 | 7.8 | 0.00 | 0.01 | 0.01 | 32 | 1003.9 |
| 20260504203722 | 71 | 197 | 1.7 | 7.8 | 0.00 | 0.01 | 0.01 | 32 | 1003.9 |
| 20260504203509 | 71 | 72 | 1.7 | 7.8 | 0.00 | 0.01 | 0.01 | 32 | 1003.9 |
| 20260504203452 | 71 | 117 | 1.7 | 7.8 | 0.00 | 0.01 | 0.01 | 32 | 1003.9 |
| 20260504203326 | 71 | 172 | 2.6 | 7.8 | 0.00 | 0.01 | 0.01 | 32 | 1003.9 |
| 20260504203110 | 71 | 274 | 2.6 | 7.8 | 0.00 | 0.01 | 0.01 | 32 | 1003.9 |
| 20260504203003 | 71 | 146 | 2.6 | 7.8 | 0.00 | 0.01 | 0.01 | 32 | 1003.9 |
| 20260504202902 | 71 | 316 | 2.6 | 7.8 | 0.00 | 0.01 | 0.01 | 32 | 1004.0 |
| 20260504202803 | 71 | 323 | 2.6 | 9.6 | 0.00 | 0.01 | 0.01 | 33 | 1004.0 |
| 20260504202703 | 71 | 294 | 3.5 | 9.6 | 0.00 | 0.01 | 0.01 | 32 | 1004.1 |
| 20260504202603 | 71 | 8 | 3.5 | 9.6 | 0.00 | 0.01 | 0.01 | 32 | 1004.0 |
| 20260504202501 | 71 | 104 | 2.6 | 9.6 | 0.00 | 0.01 | 0.01 | 31 | 1004.0 |
| 20260504202403 | 71 | 267 | 3.5 | 9.6 | 0.00 | 0.01 | 0.01 | 31 | 1004.0 |
| 20260504202304 | 71 | 156 | 3.5 | 9.6 | 0.00 | 0.01 | 0.01 | 31 | 1004.0 |
| 20260504202159 | 71 | 136 | 3.5 | 9.6 | 0.00 | 0.01 | 0.01 | 31 | 1004.0 |
| 20260504202100 | 71 | 281 | 3.5 | 9.6 | 0.00 | 0.01 | 0.01 | 31 | 1004.0 |
| 20260504202022 | 71 | 271 | 3.5 | 9.6 | 0.00 | 0.01 | 0.01 | 31 | 1004.1 |
| 20260504202012 | 71 | 271 | 3.5 | 9.6 | 0.00 | 0.01 | 0.01 | 31 | 1004.1 |
| 20260504201756 | 71 | 262 | 3.5 | 9.6 | 0.00 | 0.01 | 0.01 | 31 | 1004.0 |
| 20260504201653 | 71 | 158 | 3.5 | 9.6 | 0.00 | 0.01 | 0.01 | 31 | 1004.1 |
| 20260504201554 | 71 | 276 | 3.5 | 9.6 | 0.00 | 0.01 | 0.01 | 31 | 1004.0 |
| 20260504201511 | 71 | 132 | 3.5 | 9.6 | 0.00 | 0.01 | 0.01 | 30 | 1004.0 |
| 20260504201502 | 71 | 184 | 3.5 | 9.6 | 0.00 | 0.01 | 0.01 | 30 | 1003.9 |
| 20260504201245 | 71 | 181 | 2.6 | 8.7 | 0.00 | 0.01 | 0.01 | 30 | 1004.0 |
| 20260504201146 | 71 | 103 | 2.6 | 8.7 | 0.00 | 0.01 | 0.01 | 30 | 1004.0 |
| 20260504201047 | 72 | 327 | 3.5 | 8.7 | 0.00 | 0.01 | 0.01 | 31 | 1004.1 |
| 20260504200939 | 72 | 262 | 3.5 | 8.7 | 0.00 | 0.01 | 0.01 | 31 | 1004.0 |
| 20260504200842 | 72 | 60 | 3.5 | 8.7 | 0.00 | 0.01 | 0.01 | 30 | 1004.0 |
| 20260504200836 | 72 | 65 | 3.5 | 13.9 | 0.00 | 0.01 | 0.01 | 31 | 1004.0 |
| 20260504200831 | 72 | 177 | 3.5 | 13.9 | 0.00 | 0.01 | 0.01 | 32 | 1004.0 |
| 20260504200817 | 72 | 271 | 3.5 | 13.9 | 0.00 | 0.01 | 0.01 | 31 | 1004.0 |
| 20260504200645 | 72 | 177 | 3.5 | 13.9 | 0.00 | 0.01 | 0.01 | 32 | 1004.0 |
| 20260504200433 | 72 | 249 | 3.5 | 13.9 | 0.00 | 0.01 | 0.01 | 31 | 1004.0 |
| 20260504200333 | 72 | 288 | 3.5 | 13.9 | 0.00 | 0.01 | 0.01 | 30 | 1004.0 |
| 20260504200233 | 72 | 315 | 3.5 | 13.9 | 0.00 | 0.01 | 0.01 | 31 | 1003.9 |
| 20260504200135 | 72 | 128 | 3.5 | 13.9 | 0.00 | 0.01 | 0.01 | 31 | 1004.0 |
| 20260504200034 | 72 | 291 | 3.5 | 13.9 | 0.00 | 0.01 | 0.01 | 31 | 1004.0 |
| 20260504195926 | 72 | 353 | 3.5 | 13.9 | 0.00 | 0.01 | 0.01 | 31 | 1004.0 |
| 20260504195852 | 72 | 153 | 2.6 | 13.0 | 0.00 | 0.01 | 0.01 | 30 | 1003.9 |
| 20260504195842 | 72 | 135 | 2.6 | 13.9 | 0.00 | 0.01 | 0.01 | 31 | 1004.1 |
| 20260504195659 | 72 | 212 | 2.6 | 8.7 | 0.00 | 0.01 | 0.01 | 31 | 1004.2 |
| 20260504195647 | 72 | 89 | 2.6 | 8.7 | 0.00 | 0.01 | 0.01 | 30 | 1004.1 |
| 20260504195527 | 72 | 212 | 2.6 | 8.7 | 0.00 | 0.01 | 0.01 | 31 | 1004.2 |
| 20260504195420 | 72 | 140 | 2.6 | 8.7 | 0.00 | 0.01 | 0.01 | 31 | 1004.1 |
| 20260504195319 | 72 | 263 | 2.6 | 8.7 | 0.00 | 0.01 | 0.01 | 32 | 1004.1 |
| 20260504195241 | 72 | 193 | 2.6 | 8.7 | 0.00 | 0.01 | 0.01 | 30 | 1004.1 |
| 20260504195219 | 72 | 83 | 2.6 | 8.7 | 0.00 | 0.01 | 0.01 | 31 | 1004.1 |
| 20260504195141 | 72 | 210 | 2.6 | 8.7 | 0.00 | 0.01 | 0.01 | 31 | 1004.0 |
| 20260504195126 | 72 | 193 | 2.6 | 8.7 | 0.00 | 0.01 | 0.01 | 30 | 1004.1 |
| 20260504194916 | 72 | 109 | 2.6 | 12.2 | 0.00 | 0.01 | 0.01 | 31 | 1004.1 |
| 20260504194815 | 72 | 279 | 3.5 | 12.2 | 0.00 | 0.01 | 0.01 | 32 | 1004.2 |
| 20260504194715 | 72 | 51 | 3.5 | 12.2 | 0.00 | 0.01 | 0.01 | 31 | 1004.1 |
| 20260504194614 | 72 | 133 | 3.5 | 12.2 | 0.00 | 0.01 | 0.01 | 31 | 1004.1 |
| 20260504194515 | 72 | 288 | 3.5 | 12.2 | 0.00 | 0.01 | 0.01 | 30 | 1004.2 |
| 20260504194407 | 72 | 300 | 3.5 | 12.2 | 0.00 | 0.01 | 0.01 | 30 | 1004.4 |
| 20260504194306 | 72 | 280 | 3.5 | 12.2 | 0.00 | 0.01 | 0.01 | 31 | 1004.3 |
| 20260504194208 | 72 | 42 | 2.6 | 12.2 | 0.00 | 0.01 | 0.01 | 31 | 1004.1 |
| 20260504194107 | 72 | 186 | 2.6 | 12.2 | 0.00 | 0.01 | 0.01 | 30 | 1004.1 |
| 20260504194007 | 72 | 179 | 2.6 | 12.2 | 0.00 | 0.01 | 0.01 | 31 | 1004.3 |
| 20260504193901 | 72 | 98 | 1.7 | 8.7 | 0.00 | 0.01 | 0.01 | 30 | 1004.0 |
| 20260504193801 | 72 | 100 | 1.7 | 7.8 | 0.00 | 0.01 | 0.01 | 31 | 1004.0 |
| 20260504193701 | 72 | 264 | 1.7 | 7.8 | 0.00 | 0.01 | 0.01 | 31 | 1004.0 |
| 20260504193602 | 72 | 132 | 1.7 | 7.8 | 0.00 | 0.01 | 0.01 | 32 | 1004.0 |
| 20260504193501 | 72 | 297 | 1.7 | 7.8 | 0.00 | 0.01 | 0.01 | 31 | 1004.1 |
| 20260504193355 | 72 | 279 | 1.7 | 11.3 | 0.00 | 0.01 | 0.01 | 31 | 1004.1 |
| 20260504193255 | 71 | 162 | 2.6 | 11.3 | 0.00 | 0.01 | 0.01 | 32 | 1004.0 |
| 20260504193155 | 71 | 261 | 2.6 | 11.3 | 0.00 | 0.01 | 0.01 | 32 | 1004.1 |
| 20260504193129 | 71 | 311 | 2.6 | 11.3 | 0.00 | 0.01 | 0.01 | 31 | 1004.1 |
| 20260504193118 | 71 | 282 | 2.6 | 11.3 | 0.00 | 0.01 | 0.01 | 31 | 1004.1 |
| 20260504192958 | 71 | 311 | 2.6 | 11.3 | 0.00 | 0.01 | 0.01 | 31 | 1004.1 |
| 20260504192851 | 71 | 285 | 2.6 | 11.3 | 0.00 | 0.01 | 0.01 | 30 | 1004.1 |
| 20260504192749 | 72 | 300 | 2.6 | 11.3 | 0.00 | 0.01 | 0.01 | 30 | 1004.2 |
| 20260504192650 | 72 | 194 | 2.6 | 11.3 | 0.00 | 0.01 | 0.01 | 30 | 1004.2 |
| 20260504192550 | 72 | 306 | 3.5 | 11.3 | 0.00 | 0.01 | 0.01 | 31 | 1004.2 |
| 20260504192452 | 72 | 280 | 3.5 | 10.4 | 0.00 | 0.01 | 0.01 | 31 | 1004.2 |
| 20260504192344 | 72 | 30 | 3.5 | 12.2 | 0.00 | 0.01 | 0.01 | 30 | 1004.2 |
| 20260504192310 | 72 | 280 | 3.5 | 12.2 | 0.00 | 0.01 | 0.01 | 33 | 1004.1 |
| 20260504192300 | 72 | 142 | 3.5 | 12.2 | 0.00 | 0.01 | 0.01 | 32 | 1004.3 |
| 20260504192043 | 72 | 128 | 4.3 | 12.2 | 0.00 | 0.01 | 0.01 | 31 | 1004.1 |
| 20260504191945 | 71 | 167 | 4.3 | 12.2 | 0.00 | 0.01 | 0.01 | 32 | 1004.1 |
| 20260504191844 | 71 | 162 | 4.3 | 12.2 | 0.00 | 0.01 | 0.01 | 31 | 1004.2 |
| 20260504191741 | 71 | 259 | 4.3 | 12.2 | 0.00 | 0.01 | 0.01 | 31 | 1004.1 |
| 20260504191644 | 71 | 304 | 3.5 | 12.2 | 0.00 | 0.01 | 0.01 | 30 | 1004.3 |
| 20260504191539 | 72 | 287 | 3.5 | 12.2 | 0.00 | 0.01 | 0.01 | 31 | 1004.3 |
| 20260504191505 | 71 | 162 | 3.5 | 12.2 | 0.00 | 0.01 | 0.01 | 32 | 1004.2 |
| 20260504191450 | 72 | 142 | 3.5 | 12.2 | 0.00 | 0.01 | 0.01 | 30 | 1004.2 |
| 20260504191233 | 71 | 187 | 3.5 | 12.2 | 0.00 | 0.01 | 0.01 | 31 | 1004.1 |
| 20260504191134 | 71 | 278 | 3.5 | 12.2 | 0.00 | 0.01 | 0.01 | 31 | 1004.1 |
| 20260504191103 | 71 | 153 | 3.5 | 12.2 | 0.00 | 0.01 | 0.01 | 30 | 1004.2 |
| 20260504191053 | 71 | 288 | 3.5 | 12.2 | 0.00 | 0.01 | 0.01 | 31 | 1004.2 |
| 20260504190931 | 71 | 153 | 3.5 | 12.2 | 0.00 | 0.01 | 0.01 | 30 | 1004.2 |
| 20260504190825 | 71 | 349 | 3.5 | 12.2 | 0.00 | 0.01 | 0.01 | 30 | 1004.4 |
| 20260504190753 | 71 | 260 | 3.5 | 12.2 | 0.00 | 0.01 | 0.01 | 30 | 1004.3 |
| 20260504190743 | 71 | 153 | 3.5 | 12.2 | 0.00 | 0.01 | 0.01 | 31 | 1004.4 |
| 20260504190619 | 71 | 330 | 3.5 | 12.2 | 0.00 | 0.01 | 0.01 | 31 | 1004.3 |
| 20260504190611 | 71 | 156 | 3.5 | 11.3 | 0.00 | 0.01 | 0.01 | 31 | 1004.2 |
| 20260504190600 | 71 | 131 | 3.5 | 12.2 | 0.00 | 0.01 | 0.01 | 31 | 1004.3 |
| 20260504190439 | 71 | 330 | 3.5 | 12.2 | 0.00 | 0.01 | 0.01 | 31 | 1004.3 |
| 20260504190218 | 71 | 33 | 3.5 | 9.6 | 0.00 | 0.01 | 0.01 | 31 | 1004.3 |
| 20260504190119 | 71 | 146 | 3.5 | 9.6 | 0.00 | 0.01 | 0.01 | 31 | 1004.4 |
| 20260504190019 | 71 | 243 | 3.5 | 10.4 | 0.00 | 0.01 | 0.01 | 31 | 1004.3 |
| 20260504185921 | 71 | 302 | 3.5 | 10.4 | 0.00 | 0.01 | 0.01 | 31 | 1004.2 |
| 20260504185813 | 71 | 243 | 3.5 | 10.4 | 0.00 | 0.01 | 0.01 | 31 | 1004.3 |
| 20260504185713 | 71 | 3 | 3.5 | 10.4 | 0.00 | 0.01 | 0.01 | 31 | 1004.3 |
| 20260504185613 | 71 | 248 | 2.6 | 10.4 | 0.00 | 0.01 | 0.01 | 31 | 1004.3 |
| 20260504185513 | 71 | 139 | 2.6 | 10.4 | 0.00 | 0.01 | 0.01 | 30 | 1004.2 |
| 20260504185414 | 71 | 77 | 2.6 | 10.4 | 0.00 | 0.01 | 0.01 | 30 | 1004.4 |
| 20260504185314 | 71 | 248 | 2.6 | 10.4 | 0.00 | 0.01 | 0.01 | 31 | 1004.3 |
| 20260504185212 | 71 | 34 | 2.6 | 10.4 | 0.00 | 0.01 | 0.01 | 31 | 1004.4 |
| 20260504185112 | 71 | 8 | 3.5 | 17.4 | 0.00 | 0.01 | 0.01 | 31 | 1004.4 |
| 20260504185012 | 71 | 333 | 3.5 | 17.4 | 0.00 | 0.01 | 0.01 | 32 | 1004.4 |
| 20260504184914 | 71 | 273 | 3.5 | 17.4 | 0.00 | 0.01 | 0.01 | 31 | 1004.2 |
| 20260504184758 | 70 | 263 | 3.5 | 17.4 | 0.00 | 0.01 | 0.01 | 31 | 1004.3 |
| 20260504184657 | 70 | 257 | 3.5 | 17.4 | 0.00 | 0.01 | 0.01 | 33 | 1004.3 |
| 20260504184558 | 70 | 289 | 3.5 | 17.4 | 0.00 | 0.01 | 0.01 | 32 | 1004.3 |
| 20260504184457 | 70 | 186 | 4.3 | 17.4 | 0.00 | 0.01 | 0.01 | 31 | 1004.3 |
| 20260504184359 | 70 | 264 | 4.3 | 17.4 | 0.00 | 0.01 | 0.01 | 30 | 1004.5 |
| 20260504184320 | 70 | 277 | 4.3 | 17.4 | 0.00 | 0.01 | 0.01 | 31 | 1004.4 |
| 20260504184309 | 70 | 179 | 4.3 | 17.4 | 0.00 | 0.01 | 0.01 | 32 | 1004.5 |
| 20260504184052 | 70 | 160 | 3.5 | 11.3 | 0.00 | 0.01 | 0.01 | 31 | 1004.6 |
| 20260504183956 | 70 | 280 | 3.5 | 11.3 | 0.00 | 0.01 | 0.01 | 30 | 1004.4 |
| 20260504183934 | 70 | 288 | 3.5 | 11.3 | 0.00 | 0.01 | 0.01 | 30 | 1004.4 |
| 20260504183814 | 70 | 129 | 3.5 | 11.3 | 0.00 | 0.01 | 0.01 | 30 | 1004.4 |
| 20260504183810 | 71 | 120 | 2.6 | 11.3 | 0.00 | 0.01 | 0.01 | 30 | 1004.4 |
| 20260504183757 | 70 | 274 | 3.5 | 11.3 | 0.00 | 0.01 | 0.01 | 32 | 1004.6 |
| 20260504183741 | 70 | 257 | 3.5 | 11.3 | 0.00 | 0.01 | 0.01 | 31 | 1004.5 |
| 20260504183348 | 71 | 120 | 2.6 | 11.3 | 0.00 | 0.01 | 0.01 | 30 | 1004.4 |
| 20260504183308 | 71 | 252 | 2.6 | 9.6 | 0.00 | 0.01 | 0.01 | 30 | 1004.6 |
| 20260504183257 | 71 | 129 | 2.6 | 9.6 | 0.00 | 0.01 | 0.01 | 30 | 1004.6 |
| 20260504183042 | 71 | 269 | 2.6 | 9.6 | 0.00 | 0.01 | 0.01 | 30 | 1004.5 |
| 20260504183025 | 71 | 285 | 2.6 | 9.6 | 0.00 | 0.01 | 0.01 | 30 | 1004.4 |
| 20260504182854 | 71 | 313 | 2.6 | 9.6 | 0.00 | 0.01 | 0.01 | 29 | 1004.5 |
| 20260504182637 | 72 | 281 | 3.5 | 9.6 | 0.00 | 0.01 | 0.01 | 30 | 1004.6 |
| 20260504182539 | 72 | 354 | 3.5 | 9.6 | 0.00 | 0.01 | 0.01 | 29 | 1004.6 |
| 20260504182437 | 72 | 328 | 3.5 | 9.6 | 0.00 | 0.01 | 0.01 | 30 | 1004.6 |
| 20260504182335 | 71 | 293 | 3.5 | 9.6 | 0.00 | 0.01 | 0.01 | 32 | 1004.6 |
| 20260504182255 | 71 | 300 | 3.5 | 9.6 | 0.00 | 0.01 | 0.01 | 29 | 1004.4 |
| 20260504182245 | 71 | 215 | 3.5 | 9.6 | 0.00 | 0.01 | 0.01 | 30 | 1004.7 |
| 20260504182027 | 71 | 148 | 3.5 | 9.6 | 0.00 | 0.01 | 0.01 | 29 | 1004.4 |
| 20260504181928 | 71 | 141 | 3.5 | 9.6 | 0.00 | 0.01 | 0.01 | 30 | 1004.6 |
| 20260504181855 | 71 | 123 | 3.5 | 10.4 | 0.00 | 0.01 | 0.01 | 30 | 1004.4 |
| 20260504181846 | 71 | 304 | 3.5 | 9.6 | 0.00 | 0.01 | 0.01 | 30 | 1004.5 |
| 20260504181839 | 71 | 239 | 3.5 | 10.4 | 0.00 | 0.01 | 0.01 | 30 | 1004.5 |
| 20260504181623 | 71 | 148 | 3.5 | 10.4 | 0.00 | 0.01 | 0.01 | 31 | 1004.5 |
| 20260504181521 | 71 | 148 | 3.5 | 10.4 | 0.00 | 0.01 | 0.01 | 31 | 1004.4 |
| 20260504181423 | 71 | 321 | 3.5 | 10.4 | 0.00 | 0.01 | 0.01 | 30 | 1004.4 |
| 20260504181328 | 71 | 355 | 2.6 | 10.4 | 0.00 | 0.01 | 0.01 | 29 | 1004.5 |
| 20260504181323 | 71 | 354 | 2.6 | 10.4 | 0.00 | 0.01 | 0.01 | 29 | 1004.5 |
| 20260504181242 | 71 | 65 | 3.5 | 10.4 | 0.00 | 0.01 | 0.01 | 31 | 1004.7 |
| 20260504181232 | 71 | 296 | 3.5 | 10.4 | 0.00 | 0.01 | 0.01 | 32 | 1004.7 |
| 20260504181015 | 71 | 130 | 2.6 | 10.4 | 0.00 | 0.01 | 0.01 | 30 | 1004.6 |
| 20260504180917 | 71 | 124 | 2.6 | 10.4 | 0.00 | 0.01 | 0.01 | 30 | 1004.5 |
| 20260504180827 | 71 | 101 | 2.6 | 10.4 | 0.00 | 0.01 | 0.01 | 31 | 1004.6 |
| 20260504180818 | 71 | 140 | 2.6 | 10.4 | 0.00 | 0.01 | 0.01 | 30 | 1004.6 |
| 20260504180708 | 71 | 308 | 2.6 | 10.4 | 0.00 | 0.01 | 0.01 | 31 | 1004.6 |
| 20260504180609 | 71 | 297 | 2.6 | 10.4 | 0.00 | 0.01 | 0.01 | 31 | 1004.5 |
| 20260504180509 | 71 | 290 | 2.6 | 10.4 | 0.00 | 0.01 | 0.01 | 30 | 1004.6 |
| 20260504180409 | 71 | 22 | 2.6 | 12.2 | 0.00 | 0.01 | 0.01 | 31 | 1004.6 |
| 20260504180338 | 71 | 127 | 2.6 | 12.2 | 0.00 | 0.01 | 0.01 | 30 | 1004.5 |
| 20260504180329 | 71 | 148 | 3.5 | 12.2 | 0.00 | 0.01 | 0.01 | 30 | 1004.6 |
| 20260504180320 | 71 | 117 | 3.5 | 12.2 | 0.00 | 0.01 | 0.01 | 30 | 1004.6 |
| 20260504180108 | 71 | 259 | 2.6 | 12.2 | 0.00 | 0.01 | 0.01 | 31 | 1004.5 |
| 20260504180051 | 71 | 150 | 2.6 | 12.2 | 0.00 | 0.01 | 0.01 | 31 | 1004.6 |
| 20260504175925 | 71 | 96 | 2.6 | 12.2 | 0.00 | 0.01 | 0.01 | 30 | 1004.6 |
| 20260504175915 | 71 | 243 | 2.6 | 12.2 | 0.00 | 0.01 | 0.01 | 30 | 1004.6 |
| 20260504175657 | 70 | 252 | 3.5 | 12.2 | 0.00 | 0.01 | 0.01 | 31 | 1004.5 |
| 20260504175556 | 70 | 345 | 3.5 | 12.2 | 0.00 | 0.01 | 0.01 | 30 | 1004.5 |
| 20260504175457 | 70 | 269 | 4.3 | 12.2 | 0.00 | 0.01 | 0.01 | 30 | 1004.7 |
| 20260504175357 | 70 | 123 | 4.3 | 15.6 | 0.00 | 0.01 | 0.01 | 32 | 1004.7 |
| 20260504175329 | 70 | 281 | 4.3 | 15.6 | 0.00 | 0.01 | 0.01 | 31 | 1004.7 |
| 20260504175258 | 70 | 280 | 4.3 | 15.6 | 0.00 | 0.01 | 0.01 | 31 | 1004.7 |
| 20260504175151 | 70 | 3 | 4.3 | 15.6 | 0.00 | 0.01 | 0.01 | 32 | 1004.8 |
| 20260504175125 | 70 | 139 | 4.3 | 15.6 | 0.00 | 0.01 | 0.01 | 29 | 1004.5 |
| 20260504175056 | 70 | 130 | 4.3 | 15.6 | 0.00 | 0.01 | 0.01 | 32 | 1004.7 |
| 20260504175046 | 70 | 153 | 4.3 | 15.6 | 0.00 | 0.01 | 0.01 | 30 | 1004.5 |
| 20260504175032 | 70 | 285 | 4.3 | 15.6 | 0.00 | 0.01 | 0.01 | 31 | 1004.5 |
| 20260504175016 | 70 | 146 | 4.3 | 15.6 | 0.00 | 0.01 | 0.01 | 30 | 1004.5 |
| 20260504174855 | 70 | 114 | 4.3 | 15.6 | 0.00 | 0.01 | 0.01 | 29 | 1004.5 |
| 20260504174741 | 70 | 249 | 3.5 | 13.9 | 0.00 | 0.01 | 0.01 | 32 | 1004.6 |
| 20260504174727 | 70 | 151 | 4.3 | 15.6 | 0.00 | 0.01 | 0.01 | 30 | 1004.6 |
| 20260504174557 | 70 | 129 | 3.5 | 15.6 | 0.00 | 0.01 | 0.01 | 32 | 1004.7 |
| 20260504174309 | 70 | 195 | 3.5 | 13.9 | 0.00 | 0.01 | 0.01 | 31 | 1004.6 |
| 20260504174259 | 70 | 283 | 3.5 | 13.9 | 0.00 | 0.01 | 0.01 | 31 | 1004.6 |
| 20260504174122 | 70 | 238 | 4.3 | 13.9 | 0.00 | 0.01 | 0.01 | 29 | 1004.6 |
| 20260504173959 | 70 | 122 | 4.3 | 14.8 | 0.00 | 0.01 | 0.01 | 30 | 1004.8 |
| 20260504173829 | 70 | 85 | 4.3 | 14.8 | 0.00 | 0.01 | 0.01 | 30 | 1005.0 |
| 20260504173741 | 70 | 97 | 4.3 | 14.8 | 0.00 | 0.01 | 0.01 | 30 | 1005.0 |
| 20260504173633 | 70 | 319 | 4.3 | 14.8 | 0.00 | 0.01 | 0.01 | 31 | 1004.7 |
| 20260504173600 | 70 | 65 | 4.3 | 14.8 | 0.00 | 0.01 | 0.01 | 30 | 1004.8 |
| 20260504173550 | 70 | 57 | 4.3 | 14.8 | 0.00 | 0.01 | 0.01 | 31 | 1004.7 |
| 20260504173336 | 70 | 58 | 4.3 | 14.8 | 0.00 | 0.01 | 0.01 | 30 | 1004.8 |
| 20260504173327 | 70 | 345 | 4.3 | 14.8 | 0.00 | 0.01 | 0.01 | 30 | 1004.7 |
| 20260504173234 | 70 | 341 | 4.3 | 14.8 | 0.00 | 0.01 | 0.01 | 29 | 1004.7 |
| 20260504173127 | 70 | 26 | 4.3 | 14.8 | 0.00 | 0.01 | 0.01 | 30 | 1004.7 |
| 20260504173029 | 70 | 288 | 4.3 | 14.8 | 0.00 | 0.01 | 0.01 | 31 | 1004.7 |
| 20260504172928 | 70 | 133 | 3.5 | 12.2 | 0.00 | 0.01 | 0.01 | 31 | 1004.6 |
| 20260504172834 | 70 | 225 | 3.5 | 12.2 | 0.00 | 0.01 | 0.01 | 31 | 1004.7 |
| 20260504172827 | 70 | 245 | 3.5 | 12.2 | 0.00 | 0.01 | 0.01 | 31 | 1004.7 |
| 20260504172728 | 70 | 290 | 3.5 | 12.2 | 0.00 | 0.01 | 0.01 | 31 | 1004.7 |
| 20260504172622 | 70 | 299 | 3.5 | 12.2 | 0.00 | 0.01 | 0.01 | 32 | 1004.5 |
| 20260504172522 | 69 | 145 | 3.5 | 12.2 | 0.00 | 0.01 | 0.01 | 31 | 1004.6 |
| 20260504172421 | 69 | 117 | 3.5 | 12.2 | 0.00 | 0.01 | 0.01 | 31 | 1004.7 |
| 20260504172328 | 69 | 198 | 4.3 | 13.9 | 0.00 | 0.01 | 0.01 | 31 | 1004.7 |
| 20260504172321 | 69 | 159 | 4.3 | 13.9 | 0.00 | 0.01 | 0.01 | 30 | 1004.7 |
| 20260504172221 | 70 | 128 | 3.5 | 13.9 | 0.00 | 0.01 | 0.01 | 30 | 1004.8 |
| 20260504172141 | 69 | 288 | 3.5 | 13.9 | 0.00 | 0.01 | 0.01 | 32 | 1004.7 |
| 20260504172131 | 70 | 122 | 3.5 | 13.9 | 0.00 | 0.01 | 0.01 | 32 | 1004.9 |
| 20260504171916 | 69 | 108 | 3.5 | 13.9 | 0.00 | 0.01 | 0.01 | 32 | 1004.9 |
| 20260504171849 | 69 | 294 | 3.5 | 13.9 | 0.00 | 0.01 | 0.01 | 30 | 1004.8 |
| 20260504171839 | 69 | 259 | 3.5 | 13.9 | 0.00 | 0.01 | 0.01 | 31 | 1004.8 |
| 20260504171833 | 69 | 349 | 3.5 | 13.9 | 0.00 | 0.01 | 0.01 | 31 | 1004.8 |
| 20260504171635 | 69 | 264 | 3.5 | 13.0 | 0.00 | 0.01 | 0.01 | 32 | 1005.1 |
| 20260504171629 | 69 | 298 | 2.6 | 11.3 | 0.00 | 0.01 | 0.01 | 32 | 1004.8 |
| 20260504171623 | 69 | 142 | 3.5 | 11.3 | 0.00 | 0.01 | 0.01 | 32 | 1004.8 |
| 20260504171615 | 69 | 298 | 3.5 | 13.9 | 0.00 | 0.01 | 0.01 | 33 | 1004.9 |
| 20260504171557 | 69 | 285 | 3.5 | 13.9 | 0.00 | 0.01 | 0.01 | 31 | 1004.7 |
| 20260504171430 | 69 | 139 | 2.6 | 11.3 | 0.00 | 0.01 | 0.01 | 32 | 1004.8 |
| 20260504171305 | 69 | 86 | 2.6 | 11.3 | 0.00 | 0.01 | 0.01 | 34 | 1004.8 |
| 20260504171144 | 69 | 123 | 3.5 | 11.3 | 0.00 | 0.01 | 0.01 | 33 | 1004.8 |
| 20260504170828 | 69 | 262 | 3.5 | 11.3 | 0.00 | 0.01 | 0.01 | 33 | 1004.9 |
| 20260504170804 | 69 | 138 | 3.5 | 11.3 | 0.00 | 0.01 | 0.01 | 32 | 1004.9 |
| 20260504170704 | 69 | 187 | 3.5 | 11.3 | 0.00 | 0.01 | 0.01 | 32 | 1005.1 |
| 20260504170558 | 69 | 299 | 3.5 | 11.3 | 0.00 | 0.01 | 0.01 | 32 | 1005.1 |
| 20260504170458 | 69 | 242 | 3.5 | 11.3 | 0.00 | 0.01 | 0.01 | 32 | 1005.0 |
| 20260504170358 | 69 | 262 | 3.5 | 11.3 | 0.00 | 0.01 | 0.01 | 32 | 1004.9 |
| 20260504170327 | 69 | 321 | 3.5 | 11.3 | 0.00 | 0.01 | 0.01 | 32 | 1005.0 |
| 20260504170258 | 69 | 288 | 3.5 | 11.3 | 0.00 | 0.01 | 0.01 | 32 | 1005.0 |
| 20260504170158 | 69 | 70 | 4.3 | 13.0 | 0.00 | 0.01 | 0.01 | 32 | 1004.9 |
| 20260504160440 | 67 | 294 | 5.2 | 18.2 | 0.01 | 0.01 | 0.01 | 33 | 1005.5 |
| 20260504160409 | 67 | 93 | 5.2 | 18.2 | 0.01 | 0.01 | 0.01 | 34 | 1005.7 |
| 20260504160358 | 67 | 277 | 5.2 | 18.2 | 0.01 | 0.01 | 0.01 | 32 | 1005.6 |
| 20260504160224 | 67 | 277 | 5.2 | 18.2 | 0.01 | 0.01 | 0.01 | 34 | 1005.8 |
| 20260504160140 | 67 | 130 | 5.2 | 14.8 | 0.01 | 0.01 | 0.01 | 35 | 1005.8 |
| 20260504151042 | 65 | 170 | 3.5 | 9.6 | 0.00 | 0.00 | 0.01 | 36 | 1005.9 |
| 20260504150942 | 65 | 123 | 3.5 | 9.6 | 0.00 | 0.00 | 0.00 | 37 | 1005.9 |
| 20260504150838 | 65 | 108 | 4.3 | 13.0 | 0.00 | 0.00 | 0.00 | 37 | 1005.9 |
| 20260504150737 | 65 | 260 | 3.5 | 13.0 | 0.00 | 0.00 | 0.00 | 38 | 1005.9 |
| 20260504150637 | 65 | 288 | 3.5 | 13.0 | 0.00 | 0.00 | 0.00 | 38 | 1005.9 |
| 20260504150616 | 65 | 225 | 3.5 | 13.0 | 0.00 | 0.00 | 0.00 | 38 | 1005.9 |
| 20260504150537 | 64 | 235 | 3.5 | 13.0 | 0.00 | 0.00 | 0.00 | 38 | 1005.9 |
| 20260504150436 | 64 | 315 | 3.5 | 13.0 | 0.00 | 0.00 | 0.00 | 38 | 1006.0 |
| 20260504150329 | 64 | 351 | 3.5 | 13.0 | 0.00 | 0.00 | 0.00 | 37 | 1005.9 |
| 20260504150229 | 64 | 316 | 3.5 | 13.0 | 0.00 | 0.00 | 0.00 | 37 | 1006.0 |
| 20260504150130 | 64 | 132 | 3.5 | 13.0 | 0.00 | 0.00 | 0.00 | 37 | 1006.0 |
| 20260504150111 | 64 | 276 | 3.5 | 13.0 | 0.00 | 0.00 | 0.00 | 37 | 1006.0 |
| 20260504141320 | 60 | 30 | 2.6 | 8.7 | 0.00 | 0.00 | 0.00 | 45 | 1007.0 |
| 20260504141305 | 60 | 276 | 2.6 | 8.7 | 0.00 | 0.00 | 0.00 | 43 | 1006.9 |
| 20260504141250 | 60 | 122 | 2.6 | 8.7 | 0.00 | 0.00 | 0.00 | 44 | 1006.9 |
| 20260504140929 | 59 | 315 | 2.6 | 8.7 | 0.00 | 0.00 | 0.00 | 44 | 1006.9 |
| 20260504140829 | 59 | 228 | 2.6 | 8.7 | 0.00 | 0.00 | 0.00 | 44 | 1007.0 |
| 20260504140723 | 59 | 312 | 2.6 | 8.7 | 0.00 | 0.00 | 0.00 | 44 | 1007.1 |
| 20260504140623 | 59 | 129 | 2.6 | 8.7 | 0.00 | 0.00 | 0.00 | 44 | 1007.0 |
| 20260504140529 | 59 | 249 | 2.6 | 8.7 | 0.00 | 0.00 | 0.00 | 44 | 1007.0 |
| 20260504140522 | 59 | 174 | 2.6 | 8.7 | 0.00 | 0.00 | 0.00 | 44 | 1007.0 |
| 20260504140422 | 59 | 264 | 2.6 | 8.7 | 0.00 | 0.00 | 0.00 | 44 | 1007.0 |
| 20260504140324 | 59 | 36 | 1.7 | 8.7 | 0.00 | 0.00 | 0.00 | 44 | 1007.0 |
| 20260504140216 | 59 | 304 | 2.6 | 7.0 | 0.00 | 0.00 | 0.00 | 44 | 1007.1 |
| 20260504140117 | 59 | 128 | 1.7 | 7.0 | 0.00 | 0.00 | 0.00 | 45 | 1007.0 |
| 20260504130754 | 56 | 117 | 2.6 | 8.7 | 0.00 | 0.00 | 0.00 | 49 | 1007.5 |
| 20260504130746 | 56 | 297 | 2.6 | 8.7 | 0.00 | 0.00 | 0.00 | 49 | 1007.5 |
| 20260504130528 | 56 | 127 | 2.6 | 6.1 | 0.00 | 0.00 | 0.00 | 51 | 1007.5 |
| 20260504130428 | 56 | 77 | 1.7 | 6.1 | 0.00 | 0.00 | 0.00 | 49 | 1007.4 |
| 20260504130327 | 56 | 131 | 1.7 | 6.1 | 0.00 | 0.00 | 0.00 | 50 | 1007.4 |
| 20260504130227 | 56 | 156 | 1.7 | 6.1 | 0.00 | 0.00 | 0.00 | 51 | 1007.4 |
| 20260504130127 | 56 | 142 | 2.6 | 7.8 | 0.00 | 0.00 | 0.00 | 51 | 1007.4 |
| 20260504120315 | 49 | 221 | 0.9 | 3.5 | 0.00 | 0.00 | 0.00 | 62 | 1007.8 |
| 20260504120215 | 49 | 5 | 0.9 | 5.2 | 0.00 | 0.00 | 0.00 | 63 | 1007.8 |
| 20260504120116 | 49 | 115 | 0.9 | 5.2 | 0.00 | 0.00 | 0.00 | 63 | 1007.8 |
| 20260504110708 | 40 | 87 | 0.0 | 0.0 | 0.00 | 0.00 | 0.00 | 82 | 1008.0 |
| 20260504110621 | 40 | 88 | 0.0 | 0.0 | 0.00 | 0.00 | 0.00 | 82 | 1008.0 |
| 20260504110609 | 40 | 88 | 0.0 | 0.0 | 0.00 | 0.00 | 0.00 | 82 | 1008.0 |
| 20260504110521 | 40 | 88 | 0.0 | 0.0 | 0.00 | 0.00 | 0.00 | 82 | 1008.0 |
| 20260504110507 | 40 | 88 | 0.0 | 0.0 | 0.00 | 0.00 | 0.00 | 82 | 1008.0 |
| 20260504110309 | 40 | 88 | 0.0 | 0.0 | 0.00 | 0.00 | 0.00 | 82 | 1008.0 |
| 20260504110207 | 40 | 88 | 0.0 | 0.0 | 0.00 | 0.00 | 0.00 | 82 | 1008.0 |
| 20260504110108 | 40 | 88 | 0.0 | 0.0 | 0.00 | 0.00 | 0.00 | 82 | 1007.9 |
| 20260504100612 | 40 | 87 | 0.0 | 0.0 | 0.00 | 0.00 | 0.00 | 80 | 1008.1 |
| 20260504100335 | 40 | 88 | 0.0 | 0.0 | 0.00 | 0.00 | 0.00 | 81 | 1008.1 |
| 20260504100255 | 40 | 87 | 0.0 | 0.0 | 0.00 | 0.00 | 0.00 | 81 | 1008.1 |
| 20260504100153 | 39 | 88 | 0.0 | 0.0 | 0.00 | 0.00 | 0.00 | 81 | 1008.1 |
| 20260504100118 | 39 | 88 | 0.0 | 0.0 | 0.00 | 0.00 | 0.00 | 83 | 1008.1 |
| 20260504100111 | 39 | 88 | 0.0 | 0.0 | 0.00 | 0.00 | 0.00 | 82 | 1008.2 |
| 20260504090140 | 40 | 87 | 0.0 | 0.0 | 0.00 | 0.00 | 0.00 | 82 | 1008.0 |
| 20260504081953 | 39 | 87 | 0.0 | 0.0 | 0.00 | 0.00 | 0.00 | 87 | 1008.0 |
| 20260504081847 | 39 | 88 | 0.0 | 0.0 | 0.00 | 0.00 | 0.00 | 87 | 1008.0 |
| 20260504081748 | 39 | 86 | 0.0 | 0.0 | 0.00 | 0.00 | 0.00 | 87 | 1008.0 |
| 20260504081647 | 39 | 87 | 0.0 | 0.0 | 0.00 | 0.00 | 0.00 | 87 | 1008.0 |
| 20260504081628 | 39 | 88 | 0.0 | 0.0 | 0.00 | 0.00 | 0.00 | 87 | 1008.0 |
| 20260504081547 | 39 | 86 | 0.0 | 0.0 | 0.00 | 0.00 | 0.00 | 87 | 1008.0 |
| 20260504081446 | 39 | 88 | 0.0 | 0.0 | 0.00 | 0.00 | 0.00 | 87 | 1008.0 |
| 20260504081351 | 39 | 86 | 0.0 | 0.0 | 0.00 | 0.00 | 0.00 | 87 | 1008.0 |
| 20260504081343 | 39 | 86 | 0.0 | 0.0 | 0.00 | 0.00 | 0.00 | 87 | 1008.0 |
| 20260504081250 | 39 | 86 | 0.0 | 0.0 | 0.00 | 0.00 | 0.00 | 87 | 1008.0 |
| 20260504081233 | 39 | 86 | 0.0 | 0.0 | 0.00 | 0.00 | 0.00 | 87 | 1008.0 |
| 20260504081043 | 39 | 88 | 0.0 | 0.0 | 0.00 | 0.00 | 0.00 | 87 | 1008.0 |
| 20260504081015 | 39 | 87 | 0.0 | 0.0 | 0.00 | 0.00 | 0.00 | 87 | 1008.0 |
| 20260504080850 | 39 | 88 | 0.0 | 0.0 | 0.00 | 0.00 | 0.00 | 87 | 1008.0 |
| 20260504080616 | 39 | 86 | 0.0 | 0.0 | 0.00 | 0.00 | 0.00 | 87 | 1008.0 |
| 20260504080540 | 39 | 86 | 0.0 | 0.0 | 0.00 | 0.00 | 0.00 | 87 | 1008.0 |
| 20260504080437 | 39 | 86 | 0.0 | 0.9 | 0.00 | 0.00 | 0.00 | 87 | 1008.0 |
| 20260504080400 | 39 | 86 | 0.0 | 0.9 | 0.00 | 0.00 | 0.00 | 87 | 1008.0 |
| 20260504080350 | 39 | 86 | 0.0 | 0.9 | 0.00 | 0.00 | 0.00 | 87 | 1008.0 |
| 20260504080203 | 39 | 87 | 0.0 | 0.9 | 0.00 | 0.00 | 0.00 | 87 | 1008.0 |
| 20260504080141 | 39 | 87 | 0.0 | 0.9 | 0.00 | 0.00 | 0.00 | 87 | 1008.0 |
| 20260504070323 | 38 | 86 | 0.0 | 0.0 | 0.00 | 0.00 | 0.00 | 87 | 1008.1 |
| 20260504070224 | 38 | 86 | 0.0 | 0.0 | 0.00 | 0.00 | 0.00 | 87 | 1008.1 |
| 20260504070121 | 38 | 86 | 0.0 | 0.0 | 0.00 | 0.00 | 0.00 | 87 | 1008.1 |
| 20260504070104 | 38 | 86 | 0.0 | 0.0 | 0.00 | 0.00 | 0.00 | 87 | 1008.1 |
| 20260504060243 | 37 | 85 | 0.0 | 0.0 | 0.00 | 0.00 | 0.00 | 89 | 1007.9 |
| 20260504050623 | 35 | 85 | 0.0 | 0.0 | 0.00 | 0.00 | 0.00 | 89 | 1007.9 |
| 20260504050524 | 35 | 85 | 0.0 | 0.0 | 0.00 | 0.00 | 0.00 | 89 | 1008.0 |
| 20260504050428 | 35 | 85 | 0.0 | 0.0 | 0.00 | 0.00 | 0.00 | 89 | 1008.0 |
| 20260504050422 | 35 | 84 | 0.0 | 0.0 | 0.00 | 0.00 | 0.00 | 89 | 1008.0 |
| 20260504050341 | 35 | 85 | 0.0 | 0.0 | 0.00 | 0.00 | 0.00 | 89 | 1008.0 |
| 20260504050331 | 35 | 84 | 0.0 | 0.0 | 0.00 | 0.00 | 0.00 | 89 | 1008.0 |
| 20260504050142 | 34 | 85 | 0.0 | 0.0 | 0.00 | 0.00 | 0.00 | 89 | 1008.0 |
| 20260504050132 | 35 | 84 | 0.0 | 0.0 | 0.00 | 0.00 | 0.00 | 89 | 1008.0 |
| 20260504045944 | 34 | 85 | 0.0 | 0.0 | 0.00 | 0.00 | 0.00 | 89 | 1008.0 |
| 20260504045929 | 34 | 85 | 0.0 | 0.0 | 0.00 | 0.00 | 0.00 | 89 | 1008.0 |
| 20260504045748 | 34 | 84 | 0.0 | 0.0 | 0.00 | 0.00 | 0.00 | 89 | 1008.0 |
| 20260504045624 | 34 | 84 | 0.0 | 0.0 | 0.00 | 0.00 | 0.00 | 89 | 1008.1 |
| 20260504045423 | 34 | 85 | 0.0 | 0.0 | 0.00 | 0.00 | 0.00 | 89 | 1008.1 |
| 20260504045408 | 34 | 84 | 0.0 | 0.0 | 0.00 | 0.00 | 0.00 | 89 | 1008.1 |
| 20260504045333 | 34 | 85 | 0.0 | 0.0 | 0.00 | 0.00 | 0.00 | 89 | 1008.1 |
| 20260504045324 | 34 | 85 | 0.0 | 0.0 | 0.00 | 0.00 | 0.00 | 89 | 1008.1 |
| 20260504045143 | 34 | 85 | 0.0 | 0.0 | 0.00 | 0.00 | 0.00 | 89 | 1008.1 |
| 20260504045107 | 34 | 85 | 0.0 | 0.0 | 0.00 | 0.00 | 0.00 | 89 | 1008.1 |
| 20260504045037 | 34 | 84 | 0.0 | 0.0 | 0.00 | 0.00 | 0.00 | 89 | 1008.1 |
| 20260504044905 | 34 | 84 | 0.0 | 0.0 | 0.00 | 0.00 | 0.00 | 89 | 1008.1 |
| 20260504044758 | 34 | 84 | 0.0 | 0.0 | 0.00 | 0.00 | 0.00 | 89 | 1008.1 |
| 20260504044736 | 34 | 85 | 0.0 | 0.0 | 0.00 | 0.00 | 0.00 | 89 | 1008.2 |
| 20260504044614 | 34 | 85 | 0.0 | 0.0 | 0.00 | 0.00 | 0.00 | 89 | 1008.1 |
| 20260504044423 | 33 | 85 | 0.0 | 0.0 | 0.00 | 0.00 | 0.00 | 88 | 1008.1 |
| 20260504044402 | 33 | 84 | 0.0 | 0.0 | 0.00 | 0.00 | 0.00 | 88 | 1008.1 |
| 20260504044344 | 33 | 85 | 0.0 | 0.0 | 0.00 | 0.00 | 0.00 | 88 | 1008.1 |
| 20260504044202 | 33 | 85 | 0.0 | 0.0 | 0.00 | 0.00 | 0.00 | 88 | 1008.0 |
| 20260504044155 | 33 | 85 | 0.0 | 0.0 | 0.00 | 0.00 | 0.00 | 88 | 1008.1 |
| 20260504044138 | 33 | 84 | 0.0 | 0.0 | 0.00 | 0.00 | 0.00 | 88 | 1008.0 |
| 20260504044121 | 33 | 84 | 0.0 | 0.0 | 0.00 | 0.00 | 0.00 | 88 | 1008.0 |
| 20260504044000 | 33 | 85 | 0.0 | 0.0 | 0.00 | 0.00 | 0.00 | 88 | 1008.0 |
| 20260504043729 | 33 | 85 | 0.0 | 0.0 | 0.00 | 0.00 | 0.00 | 88 | 1008.1 |
| 20260504043717 | 33 | 85 | 0.0 | 0.0 | 0.00 | 0.00 | 0.00 | 88 | 1008.1 |
| 20260504043421 | 33 | 85 | 0.0 | 0.0 | 0.00 | 0.00 | 0.00 | 88 | 1008.1 |
| 20260504043346 | 33 | 85 | 0.0 | 0.0 | 0.00 | 0.00 | 0.00 | 88 | 1008.1 |
| 20260504043245 | 33 | 85 | 0.0 | 0.0 | 0.00 | 0.00 | 0.00 | 88 | 1008.1 |
| 20260504043143 | 33 | 84 | 0.0 | 0.0 | 0.00 | 0.00 | 0.00 | 88 | 1008.1 |
| 20260504043040 | 33 | 85 | 0.0 | 0.0 | 0.00 | 0.00 | 0.00 | 88 | 1008.1 |
| 20260504042941 | 33 | 85 | 0.0 | 0.0 | 0.00 | 0.00 | 0.00 | 88 | 1008.0 |
| 20260504042922 | 33 | 84 | 0.0 | 0.0 | 0.00 | 0.00 | 0.00 | 88 | 1008.1 |
| 20260504042839 | 33 | 85 | 0.0 | 0.0 | 0.00 | 0.00 | 0.00 | 88 | 1008.1 |
| 20260504042734 | 33 | 85 | 0.0 | 0.0 | 0.00 | 0.00 | 0.00 | 87 | 1008.1 |
| 20260504042633 | 33 | 85 | 0.0 | 0.0 | 0.00 | 0.00 | 0.00 | 87 | 1008.1 |
| 20260504042532 | 33 | 84 | 0.0 | 0.0 | 0.00 | 0.00 | 0.00 | 87 | 1008.1 |
| 20260504042432 | 33 | 84 | 0.0 | 0.0 | 0.00 | 0.00 | 0.00 | 87 | 1008.1 |
| 20260504042422 | 33 | 85 | 0.0 | 0.0 | 0.00 | 0.00 | 0.00 | 87 | 1008.0 |
| 20260504042334 | 33 | 85 | 0.0 | 0.0 | 0.00 | 0.00 | 0.00 | 87 | 1008.0 |
| 20260504042236 | 33 | 85 | 0.0 | 0.0 | 0.00 | 0.00 | 0.00 | 87 | 1008.0 |
| 20260504042134 | 33 | 85 | 0.0 | 0.0 | 0.00 | 0.00 | 0.00 | 87 | 1008.0 |
| 20260504042125 | 33 | 85 | 0.0 | 0.0 | 0.00 | 0.00 | 0.00 | 86 | 1008.0 |
| 20260504042120 | 33 | 85 | 0.0 | 0.0 | 0.00 | 0.00 | 0.00 | 86 | 1007.9 |
| 20260504042109 | 33 | 85 | 0.0 | 0.0 | 0.00 | 0.00 | 0.00 | 86 | 1008.0 |
| 20260504041943 | 33 | 85 | 0.0 | 0.0 | 0.00 | 0.00 | 0.00 | 86 | 1008.0 |
| 20260504041820 | 33 | 85 | 0.0 | 0.0 | 0.00 | 0.00 | 0.00 | 86 | 1007.9 |
| 20260504041813 | 33 | 84 | 0.0 | 0.0 | 0.00 | 0.00 | 0.00 | 87 | 1007.9 |
| 20260504041802 | 33 | 85 | 0.0 | 0.0 | 0.00 | 0.00 | 0.00 | 86 | 1008.0 |
| 20260504041427 | 33 | 85 | 0.0 | 0.0 | 0.00 | 0.00 | 0.00 | 87 | 1008.0 |
| 20260504041418 | 33 | 84 | 0.0 | 0.0 | 0.00 | 0.00 | 0.00 | 87 | 1008.0 |
| 20260504041327 | 33 | 85 | 0.0 | 0.0 | 0.00 | 0.00 | 0.00 | 87 | 1007.9 |
| 20260504041226 | 33 | 84 | 0.0 | 0.0 | 0.00 | 0.00 | 0.00 | 86 | 1008.0 |
| 20260504041128 | 33 | 85 | 0.0 | 0.0 | 0.00 | 0.00 | 0.00 | 86 | 1008.0 |
| 20260504041055 | 33 | 85 | 0.0 | 0.0 | 0.00 | 0.00 | 0.00 | 86 | 1007.9 |
| 20260504041046 | 33 | 85 | 0.0 | 0.0 | 0.00 | 0.00 | 0.00 | 86 | 1007.9 |
| 20260504040920 | 34 | 84 | 0.0 | 0.0 | 0.00 | 0.00 | 0.00 | 86 | 1007.9 |
| 20260504040827 | 34 | 85 | 0.0 | 0.0 | 0.00 | 0.00 | 0.00 | 86 | 1007.9 |
| 20260504040729 | 34 | 85 | 0.0 | 0.0 | 0.00 | 0.00 | 0.00 | 86 | 1007.9 |
| 20260504040624 | 34 | 84 | 0.0 | 0.0 | 0.00 | 0.00 | 0.00 | 86 | 1007.9 |
| 20260504040525 | 34 | 84 | 0.0 | 0.0 | 0.00 | 0.00 | 0.00 | 86 | 1007.8 |
| 20260504040427 | 34 | 84 | 0.0 | 0.0 | 0.00 | 0.00 | 0.00 | 86 | 1007.9 |
| 20260504040417 | 34 | 85 | 0.0 | 0.0 | 0.00 | 0.00 | 0.00 | 86 | 1007.9 |
| 20260504040323 | 34 | 85 | 0.0 | 0.0 | 0.00 | 0.00 | 0.00 | 86 | 1007.8 |
| 20260504040221 | 34 | 85 | 0.0 | 0.0 | 0.00 | 0.00 | 0.00 | 86 | 1007.8 |
| 20260504040118 | 34 | 84 | 0.0 | 0.0 | 0.00 | 0.00 | 0.00 | 86 | 1007.9 |
| 20260504040020 | 34 | 85 | 0.0 | 0.0 | 0.00 | 0.00 | 0.00 | 86 | 1007.8 |
| 20260504035920 | 34 | 84 | 0.0 | 0.0 | 0.00 | 0.00 | 0.00 | 86 | 1007.9 |
| 20260504035844 | 34 | 85 | 0.0 | 0.0 | 0.00 | 0.00 | 0.00 | 85 | 1007.9 |
| 20260504035834 | 34 | 85 | 0.0 | 0.0 | 0.00 | 0.00 | 0.00 | 86 | 1007.9 |
| 20260504035642 | 34 | 84 | 0.0 | 0.0 | 0.00 | 0.00 | 0.00 | 85 | 1007.8 |
| 20260504035621 | 34 | 85 | 0.0 | 0.0 | 0.00 | 0.00 | 0.00 | 85 | 1007.9 |
| 20260504035538 | 34 | 84 | 0.0 | 0.0 | 0.00 | 0.00 | 0.00 | 85 | 1007.9 |
| 20260504035417 | 34 | 85 | 0.0 | 0.0 | 0.00 | 0.00 | 0.00 | 85 | 1007.8 |
| 20260504035318 | 34 | 84 | 0.0 | 0.0 | 0.00 | 0.00 | 0.00 | 85 | 1007.8 |
| 20260504035214 | 34 | 84 | 0.0 | 0.0 | 0.00 | 0.00 | 0.00 | 85 | 1007.9 |
| 20260504035114 | 34 | 84 | 0.0 | 0.0 | 0.00 | 0.00 | 0.00 | 85 | 1007.8 |
| 20260504035009 | 34 | 84 | 0.0 | 0.0 | 0.00 | 0.00 | 0.00 | 85 | 1007.9 |
| 20260504034919 | 34 | 85 | 0.0 | 0.0 | 0.00 | 0.00 | 0.00 | 85 | 1007.9 |
| 20260504034909 | 34 | 84 | 0.0 | 0.0 | 0.00 | 0.00 | 0.00 | 85 | 1007.9 |
| 20260504034810 | 34 | 85 | 0.0 | 0.0 | 0.00 | 0.00 | 0.00 | 85 | 1007.8 |
| 20260504034734 | 34 | 84 | 0.0 | 0.0 | 0.00 | 0.00 | 0.00 | 85 | 1007.8 |
| 20260504034723 | 34 | 84 | 0.0 | 0.0 | 0.00 | 0.00 | 0.00 | 85 | 1007.8 |
| 20260504034503 | 34 | 85 | 0.0 | 0.0 | 0.00 | 0.00 | 0.00 | 85 | 1007.8 |
| 20260504034417 | 34 | 84 | 0.0 | 0.0 | 0.00 | 0.00 | 0.00 | 85 | 1007.8 |
| 20260504034401 | 34 | 84 | 0.0 | 0.0 | 0.00 | 0.00 | 0.00 | 85 | 1007.8 |
| 20260504034301 | 34 | 85 | 0.0 | 0.0 | 0.00 | 0.00 | 0.00 | 85 | 1007.8 |
| 20260504034203 | 34 | 85 | 0.0 | 0.0 | 0.00 | 0.00 | 0.00 | 85 | 1007.7 |
| 20260504034100 | 34 | 85 | 0.0 | 0.0 | 0.00 | 0.00 | 0.00 | 85 | 1007.8 |
| 20260504034000 | 34 | 85 | 0.0 | 0.0 | 0.00 | 0.00 | 0.00 | 85 | 1007.8 |
| 20260504033933 | 34 | 85 | 0.0 | 0.0 | 0.00 | 0.00 | 0.00 | 85 | 1007.8 |
| 20260504033926 | 34 | 85 | 0.0 | 0.0 | 0.00 | 0.00 | 0.00 | 85 | 1007.7 |
| 20260504033914 | 34 | 85 | 0.0 | 0.0 | 0.00 | 0.00 | 0.00 | 85 | 1007.7 |
| 20260504033655 | 34 | 85 | 0.0 | 0.0 | 0.00 | 0.00 | 0.00 | 85 | 1007.8 |
| 20260504033553 | 35 | 85 | 0.0 | 0.0 | 0.00 | 0.00 | 0.00 | 85 | 1007.7 |
| 20260504033452 | 35 | 85 | 0.0 | 0.0 | 0.00 | 0.00 | 0.00 | 85 | 1007.7 |
| 20260504033415 | 35 | 85 | 0.0 | 0.0 | 0.00 | 0.00 | 0.00 | 85 | 1007.8 |
| 20260504033406 | 35 | 84 | 0.0 | 0.0 | 0.00 | 0.00 | 0.00 | 85 | 1007.8 |
| 20260504033352 | 35 | 85 | 0.0 | 0.0 | 0.00 | 0.00 | 0.00 | 85 | 1007.7 |
| 20260504033234 | 35 | 85 | 0.0 | 0.0 | 0.00 | 0.00 | 0.00 | 84 | 1007.8 |
| 20260504033223 | 35 | 84 | 0.0 | 0.0 | 0.00 | 0.00 | 0.00 | 85 | 1007.8 |
| 20260504033059 | 35 | 85 | 0.0 | 0.0 | 0.00 | 0.00 | 0.00 | 85 | 1007.8 |
| 20260504033042 | 35 | 85 | 0.0 | 0.0 | 0.00 | 0.00 | 0.00 | 85 | 1007.8 |
| 20260504032917 | 35 | 84 | 0.0 | 0.0 | 0.00 | 0.00 | 0.00 | 84 | 1007.8 |
| 20260504032542 | 35 | 84 | 0.0 | 0.0 | 0.00 | 0.00 | 0.00 | 84 | 1007.8 |
| 20260504032443 | 35 | 85 | 0.0 | 0.0 | 0.00 | 0.00 | 0.00 | 84 | 1007.7 |
| 20260504032358 | 35 | 84 | 0.0 | 0.0 | 0.00 | 0.00 | 0.00 | 84 | 1007.8 |
| 20260504032338 | 35 | 85 | 0.0 | 0.0 | 0.00 | 0.00 | 0.00 | 84 | 1007.8 |
| 20260504032240 | 35 | 85 | 0.0 | 0.0 | 0.00 | 0.00 | 0.00 | 84 | 1007.8 |
| 20260504032210 | 35 | 84 | 0.0 | 0.0 | 0.00 | 0.00 | 0.00 | 84 | 1007.7 |
| 20260504032048 | 35 | 84 | 0.0 | 0.0 | 0.00 | 0.00 | 0.00 | 84 | 1007.7 |
| 20260504031853 | 35 | 85 | 0.0 | 0.0 | 0.00 | 0.00 | 0.00 | 84 | 1007.7 |
| 20260504031830 | 35 | 84 | 0.0 | 0.0 | 0.00 | 0.00 | 0.00 | 83 | 1007.7 |
| 20260504031729 | 35 | 85 | 0.0 | 0.0 | 0.00 | 0.00 | 0.00 | 83 | 1007.7 |
| 20260504031629 | 35 | 84 | 0.0 | 0.0 | 0.00 | 0.00 | 0.00 | 83 | 1007.7 |
| 20260504031528 | 35 | 84 | 0.0 | 0.0 | 0.00 | 0.00 | 0.00 | 83 | 1007.7 |
| 20260504031424 | 35 | 85 | 0.0 | 0.0 | 0.00 | 0.00 | 0.00 | 83 | 1007.7 |
| 20260504031324 | 35 | 85 | 0.0 | 0.0 | 0.00 | 0.00 | 0.00 | 83 | 1007.7 |
| 20260504031224 | 35 | 84 | 0.0 | 0.0 | 0.00 | 0.00 | 0.00 | 83 | 1007.7 |
| 20260504031124 | 35 | 84 | 0.0 | 0.0 | 0.00 | 0.00 | 0.00 | 83 | 1007.7 |
| 20260504031025 | 35 | 85 | 0.0 | 0.0 | 0.00 | 0.00 | 0.00 | 83 | 1007.7 |
| 20260504030917 | 35 | 85 | 0.0 | 0.0 | 0.00 | 0.00 | 0.00 | 83 | 1007.7 |
| 20260504030840 | 35 | 84 | 0.0 | 0.0 | 0.00 | 0.00 | 0.00 | 83 | 1007.7 |
| 20260504030817 | 35 | 85 | 0.0 | 0.0 | 0.00 | 0.00 | 0.00 | 83 | 1007.7 |
| 20260504030717 | 35 | 85 | 0.0 | 0.0 | 0.00 | 0.00 | 0.00 | 83 | 1007.7 |
| 20260504030643 | 35 | 84 | 0.0 | 0.0 | 0.00 | 0.00 | 0.00 | 82 | 1007.7 |
| 20260504030633 | 35 | 85 | 0.0 | 0.0 | 0.00 | 0.00 | 0.00 | 82 | 1007.7 |
| 20260504030412 | 36 | 85 | 0.0 | 0.0 | 0.00 | 0.00 | 0.00 | 82 | 1007.7 |
| 20260504030336 | 36 | 84 | 0.0 | 0.0 | 0.00 | 0.00 | 0.00 | 82 | 1007.7 |
| 20260504030311 | 36 | 85 | 0.0 | 0.0 | 0.00 | 0.00 | 0.00 | 82 | 1007.7 |
| 20260504030249 | 36 | 85 | 0.0 | 0.0 | 0.00 | 0.00 | 0.00 | 82 | 1007.7 |
| 20260504030238 | 36 | 85 | 0.0 | 0.0 | 0.00 | 0.00 | 0.00 | 82 | 1007.7 |
| 20260504030117 | 36 | 84 | 0.0 | 0.0 | 0.00 | 0.00 | 0.00 | 82 | 1007.7 |
| 20260504030100 | 36 | 85 | 0.0 | 0.0 | 0.00 | 0.00 | 0.00 | 82 | 1007.7 |
| 20260504025806 | 36 | 84 | 0.0 | 0.0 | 0.00 | 0.00 | 0.00 | 82 | 1007.8 |
| 20260504025705 | 36 | 85 | 0.0 | 0.0 | 0.00 | 0.00 | 0.00 | 82 | 1007.7 |
| 20260504025605 | 36 | 84 | 0.0 | 0.0 | 0.00 | 0.00 | 0.00 | 82 | 1007.8 |
| 20260504025507 | 36 | 85 | 0.0 | 0.0 | 0.00 | 0.00 | 0.00 | 81 | 1007.7 |
| 20260504025404 | 36 | 85 | 0.0 | 0.0 | 0.00 | 0.00 | 0.00 | 81 | 1007.8 |
| 20260504025321 | 36 | 85 | 0.0 | 0.0 | 0.00 | 0.00 | 0.00 | 81 | 1007.8 |
| 20260504025305 | 36 | 84 | 0.0 | 0.0 | 0.00 | 0.00 | 0.00 | 81 | 1007.8 |
| 20260504025204 | 36 | 85 | 0.0 | 0.0 | 0.00 | 0.00 | 0.00 | 81 | 1007.7 |
| 20260504025101 | 36 | 85 | 0.0 | 0.0 | 0.00 | 0.00 | 0.00 | 80 | 1007.8 |
| 20260504025000 | 36 | 85 | 0.0 | 0.0 | 0.00 | 0.00 | 0.00 | 80 | 1007.7 |
| 20260504024857 | 36 | 85 | 0.0 | 0.0 | 0.00 | 0.00 | 0.00 | 80 | 1007.7 |
| 20260504024817 | 36 | 85 | 0.0 | 0.0 | 0.00 | 0.00 | 0.00 | 80 | 1007.7 |
| 20260504024757 | 36 | 85 | 0.0 | 0.0 | 0.00 | 0.00 | 0.00 | 80 | 1007.7 |
| 20260504024659 | 36 | 85 | 0.0 | 0.0 | 0.00 | 0.00 | 0.00 | 80 | 1007.8 |
| 20260504024555 | 36 | 84 | 0.0 | 0.0 | 0.00 | 0.00 | 0.00 | 80 | 1007.8 |
| 20260504024454 | 36 | 85 | 0.0 | 0.0 | 0.00 | 0.00 | 0.00 | 80 | 1007.8 |
| 20260504024347 | 36 | 85 | 0.0 | 0.0 | 0.00 | 0.00 | 0.00 | 80 | 1007.7 |
| 20260504024309 | 36 | 84 | 0.0 | 0.0 | 0.00 | 0.00 | 0.00 | 81 | 1007.7 |
| 20260504024247 | 37 | 84 | 0.0 | 0.0 | 0.00 | 0.00 | 0.00 | 81 | 1007.7 |
| 20260504024147 | 37 | 84 | 0.0 | 0.0 | 0.00 | 0.00 | 0.00 | 80 | 1007.8 |
| 20260504024115 | 37 | 84 | 0.0 | 0.0 | 0.00 | 0.00 | 0.00 | 80 | 1007.7 |
| 20260504024106 | 37 | 84 | 0.0 | 0.0 | 0.00 | 0.00 | 0.00 | 80 | 1007.7 |
| 20260504023844 | 37 | 85 | 0.0 | 0.0 | 0.00 | 0.00 | 0.00 | 80 | 1007.7 |
| 20260504023803 | 37 | 84 | 0.0 | 0.0 | 0.00 | 0.00 | 0.00 | 80 | 1007.7 |
| 20260504023744 | 37 | 84 | 0.0 | 0.0 | 0.00 | 0.00 | 0.00 | 80 | 1007.7 |
| 20260504023646 | 37 | 85 | 0.0 | 0.0 | 0.00 | 0.00 | 0.00 | 79 | 1007.7 |
| 20260504023544 | 37 | 84 | 0.0 | 0.0 | 0.00 | 0.00 | 0.00 | 79 | 1007.7 |
| 20260504023442 | 37 | 85 | 0.0 | 0.0 | 0.00 | 0.00 | 0.00 | 79 | 1007.7 |
| 20260504023341 | 37 | 84 | 0.0 | 0.0 | 0.00 | 0.00 | 0.00 | 79 | 1007.7 |
| 20260504023258 | 37 | 84 | 0.0 | 0.0 | 0.00 | 0.00 | 0.00 | 79 | 1007.7 |
| 20260504023238 | 37 | 85 | 0.0 | 0.0 | 0.00 | 0.00 | 0.00 | 79 | 1007.7 |
| 20260504023212 | 37 | 85 | 0.0 | 0.0 | 0.00 | 0.00 | 0.00 | 79 | 1007.7 |
| 20260504023048 | 37 | 84 | 0.0 | 0.0 | 0.00 | 0.00 | 0.00 | 78 | 1007.7 |
| 20260504023034 | 37 | 84 | 0.0 | 0.0 | 0.00 | 0.00 | 0.00 | 78 | 1007.7 |
| 20260504022910 | 37 | 85 | 0.0 | 0.0 | 0.00 | 0.00 | 0.00 | 78 | 1007.7 |
| 20260504022746 | 37 | 85 | 0.0 | 0.0 | 0.00 | 0.00 | 0.00 | 78 | 1007.7 |
| 20260504022529 | 37 | 85 | 0.0 | 0.0 | 0.00 | 0.00 | 0.00 | 78 | 1007.7 |
| 20260504022428 | 37 | 85 | 0.0 | 0.0 | 0.00 | 0.00 | 0.00 | 78 | 1007.7 |
| 20260504022355 | 37 | 84 | 0.0 | 0.0 | 0.00 | 0.00 | 0.00 | 78 | 1007.7 |
| 20260504022345 | 37 | 84 | 0.0 | 0.0 | 0.00 | 0.00 | 0.00 | 78 | 1007.7 |
| 20260504022333 | 37 | 85 | 0.0 | 0.0 | 0.00 | 0.00 | 0.00 | 78 | 1007.7 |
| 20260504022157 | 37 | 85 | 0.0 | 0.0 | 0.00 | 0.00 | 0.00 | 78 | 1007.7 |
| 20260504022039 | 37 | 85 | 0.0 | 0.0 | 0.00 | 0.00 | 0.00 | 79 | 1007.8 |
| 20260504022029 | 37 | 85 | 0.0 | 0.0 | 0.00 | 0.00 | 0.00 | 79 | 1007.7 |
| 20260504022012 | 37 | 84 | 0.0 | 0.0 | 0.00 | 0.00 | 0.00 | 79 | 1007.7 |
| 20260504021721 | 37 | 85 | 0.0 | 0.0 | 0.00 | 0.00 | 0.00 | 79 | 1007.7 |
| 20260504021645 | 37 | 85 | 0.0 | 0.0 | 0.00 | 0.00 | 0.00 | 79 | 1007.7 |
| 20260504021636 | 37 | 84 | 0.0 | 0.0 | 0.00 | 0.00 | 0.00 | 79 | 1007.7 |
| 20260504021419 | 37 | 84 | 0.0 | 0.0 | 0.00 | 0.00 | 0.00 | 79 | 1007.7 |
| 20260504021317 | 37 | 84 | 0.0 | 0.0 | 0.00 | 0.00 | 0.00 | 79 | 1007.7 |
| 20260504021234 | 37 | 85 | 0.0 | 0.0 | 0.00 | 0.00 | 0.00 | 79 | 1007.7 |
| 20260504021214 | 37 | 84 | 0.0 | 0.0 | 0.00 | 0.00 | 0.00 | 79 | 1007.7 |
| 20260504021116 | 37 | 84 | 0.0 | 0.0 | 0.00 | 0.00 | 0.00 | 79 | 1007.7 |
| 20260504021014 | 37 | 85 | 0.0 | 0.0 | 0.00 | 0.00 | 0.00 | 79 | 1007.7 |
| 20260504020951 | 37 | 84 | 0.0 | 0.0 | 0.00 | 0.00 | 0.00 | 78 | 1007.6 |
| 20260504020913 | 37 | 84 | 0.0 | 0.0 | 0.00 | 0.00 | 0.00 | 79 | 1007.7 |
| 20260504020841 | 37 | 84 | 0.0 | 0.0 | 0.00 | 0.00 | 0.00 | 78 | 1007.7 |
| 20260504020706 | 37 | 84 | 0.0 | 0.0 | 0.00 | 0.00 | 0.00 | 78 | 1007.6 |
| 20260504020605 | 37 | 84 | 0.0 | 0.0 | 0.00 | 0.00 | 0.00 | 78 | 1007.6 |
| 20260504020505 | 37 | 84 | 0.0 | 0.0 | 0.00 | 0.00 | 0.00 | 78 | 1007.6 |
| 20260504020405 | 38 | 84 | 0.0 | 0.0 | 0.00 | 0.00 | 0.00 | 78 | 1007.6 |
| 20260504020332 | 38 | 85 | 0.0 | 0.0 | 0.00 | 0.00 | 0.00 | 78 | 1007.6 |
| 20260504020309 | 38 | 84 | 0.0 | 0.0 | 0.00 | 0.00 | 0.00 | 78 | 1007.6 |
| 20260504020058 | 38 | 84 | 0.0 | 0.0 | 0.00 | 0.00 | 0.00 | 78 | 1007.6 |
| 20260504015959 | 38 | 85 | 0.0 | 0.0 | 0.00 | 0.00 | 0.00 | 78 | 1007.6 |
| 20260504015900 | 38 | 84 | 0.0 | 0.0 | 0.00 | 0.00 | 0.00 | 78 | 1007.6 |
| 20260504015755 | 38 | 85 | 0.0 | 0.0 | 0.00 | 0.00 | 0.00 | 77 | 1007.6 |
| 20260504015716 | 38 | 84 | 0.0 | 0.0 | 0.00 | 0.00 | 0.00 | 77 | 1007.6 |
| 20260504015653 | 38 | 85 | 0.0 | 0.0 | 0.00 | 0.00 | 0.00 | 77 | 1007.6 |
| 20260504015643 | 38 | 84 | 0.0 | 0.0 | 0.00 | 0.00 | 0.00 | 76 | 1007.5 |
| 20260504015637 | 38 | 84 | 0.0 | 0.0 | 0.00 | 0.00 | 0.00 | 76 | 1007.5 |
| 20260504015626 | 38 | 84 | 0.0 | 0.0 | 0.00 | 0.00 | 0.00 | 76 | 1007.6 |
| 20260504015321 | 38 | 85 | 0.0 | 0.0 | 0.00 | 0.00 | 0.00 | 76 | 1007.5 |
| 20260504015309 | 38 | 85 | 0.0 | 0.0 | 0.00 | 0.00 | 0.00 | 77 | 1007.5 |
| 20260504015258 | 38 | 84 | 0.0 | 0.0 | 0.00 | 0.00 | 0.00 | 76 | 1007.5 |
| 20260504015046 | 38 | 85 | 0.0 | 0.0 | 0.00 | 0.00 | 0.00 | 76 | 1007.5 |
| 20260504015022 | 38 | 84 | 0.0 | 0.0 | 0.00 | 0.00 | 0.00 | 76 | 1007.5 |
| 20260504015018 | 38 | 85 | 0.0 | 0.0 | 0.00 | 0.00 | 0.00 | 76 | 1007.5 |
| 20260504015006 | 38 | 84 | 0.0 | 0.0 | 0.00 | 0.00 | 0.00 | 76 | 1007.5 |
| 20260504014817 | 38 | 85 | 0.0 | 0.0 | 0.00 | 0.00 | 0.00 | 76 | 1007.5 |
| 20260504014645 | 38 | 84 | 0.0 | 0.0 | 0.00 | 0.00 | 0.00 | 76 | 1007.5 |
| 20260504014547 | 38 | 85 | 0.0 | 0.0 | 0.00 | 0.00 | 0.00 | 76 | 1007.5 |
| 20260504014443 | 38 | 84 | 0.0 | 0.0 | 0.00 | 0.00 | 0.00 | 75 | 1007.5 |
| 20260504014409 | 38 | 85 | 0.0 | 0.0 | 0.00 | 0.00 | 0.00 | 75 | 1007.5 |
| 20260504014359 | 38 | 84 | 0.0 | 0.0 | 0.00 | 0.00 | 0.00 | 75 | 1007.5 |
| 20260504014158 | 38 | 84 | 0.0 | 0.0 | 0.00 | 0.00 | 0.00 | 75 | 1007.5 |
| 20260504014138 | 38 | 85 | 0.0 | 0.0 | 0.00 | 0.00 | 0.00 | 75 | 1007.5 |
| 20260504014102 | 38 | 84 | 0.0 | 0.0 | 0.00 | 0.00 | 0.00 | 75 | 1007.5 |
| 20260504014054 | 38 | 85 | 0.0 | 0.0 | 0.00 | 0.00 | 0.00 | 75 | 1007.5 |
| 20260504013849 | 38 | 85 | 0.0 | 0.0 | 0.00 | 0.00 | 0.00 | 76 | 1007.4 |
| 20260504013842 | 38 | 84 | 0.0 | 0.0 | 0.00 | 0.00 | 0.00 | 75 | 1007.4 |
| 20260504013824 | 38 | 84 | 0.0 | 0.0 | 0.00 | 0.00 | 0.00 | 76 | 1007.4 |
| 20260504013812 | 38 | 84 | 0.0 | 0.0 | 0.00 | 0.00 | 0.00 | 76 | 1007.4 |
| 20260504013538 | 38 | 85 | 0.0 | 0.0 | 0.00 | 0.00 | 0.00 | 76 | 1007.5 |
| 20260504013524 | 38 | 84 | 0.0 | 0.0 | 0.00 | 0.00 | 0.00 | 76 | 1007.4 |
| 20260504013403 | 38 | 84 | 0.0 | 0.0 | 0.00 | 0.00 | 0.00 | 76 | 1007.5 |
| 20260504013235 | 38 | 84 | 0.0 | 0.0 | 0.00 | 0.00 | 0.00 | 76 | 1007.4 |
| 20260504013025 | 38 | 84 | 0.0 | 0.0 | 0.00 | 0.00 | 0.00 | 76 | 1007.4 |
| 20260504012927 | 38 | 84 | 0.0 | 0.0 | 0.00 | 0.00 | 0.00 | 77 | 1007.4 |
| 20260504012824 | 38 | 84 | 0.0 | 0.0 | 0.00 | 0.00 | 0.00 | 77 | 1007.4 |
| 20260504012724 | 38 | 85 | 0.0 | 0.0 | 0.00 | 0.00 | 0.00 | 77 | 1007.4 |
| 20260504012642 | 38 | 85 | 0.0 | 0.0 | 0.00 | 0.00 | 0.00 | 77 | 1007.4 |
| 20260504012621 | 38 | 84 | 0.0 | 0.0 | 0.00 | 0.00 | 0.00 | 77 | 1007.4 |
| 20260504012523 | 38 | 84 | 0.0 | 0.0 | 0.00 | 0.00 | 0.00 | 76 | 1007.4 |
| 20260504012434 | 38 | 84 | 0.0 | 0.0 | 0.00 | 0.00 | 0.00 | 76 | 1007.4 |
| 20260504012429 | 38 | 84 | 0.0 | 0.0 | 0.00 | 0.00 | 0.00 | 76 | 1007.3 |
| 20260504012420 | 38 | 84 | 0.0 | 0.0 | 0.00 | 0.00 | 0.00 | 76 | 1007.4 |
| 20260504012405 | 38 | 84 | 0.0 | 0.0 | 0.00 | 0.00 | 0.00 | 76 | 1007.4 |
| 20260504012112 | 38 | 84 | 0.0 | 0.0 | 0.00 | 0.00 | 0.00 | 76 | 1007.3 |
| 20260504012010 | 38 | 84 | 0.0 | 0.0 | 0.00 | 0.00 | 0.00 | 75 | 1007.3 |
| 20260504011911 | 38 | 84 | 0.0 | 0.0 | 0.00 | 0.00 | 0.00 | 75 | 1007.4 |
| 20260504011813 | 39 | 84 | 0.0 | 0.0 | 0.00 | 0.00 | 0.00 | 75 | 1007.3 |
| 20260504011705 | 39 | 84 | 0.0 | 0.0 | 0.00 | 0.00 | 0.00 | 75 | 1007.3 |
| 20260504011627 | 39 | 84 | 0.0 | 0.0 | 0.00 | 0.00 | 0.00 | 75 | 1007.3 |
| 20260504011604 | 39 | 85 | 0.0 | 0.0 | 0.00 | 0.00 | 0.00 | 75 | 1007.3 |
| 20260504011505 | 39 | 85 | 0.0 | 0.0 | 0.00 | 0.00 | 0.00 | 75 | 1007.3 |
| 20260504011453 | 39 | 84 | 0.0 | 0.0 | 0.00 | 0.00 | 0.00 | 75 | 1007.3 |
| 20260504011449 | 39 | 85 | 0.0 | 0.0 | 0.00 | 0.00 | 0.00 | 74 | 1007.2 |
| 20260504011435 | 39 | 85 | 0.0 | 0.0 | 0.00 | 0.00 | 0.00 | 75 | 1007.3 |
| 20260504011304 | 39 | 84 | 0.0 | 0.0 | 0.00 | 0.00 | 0.00 | 75 | 1007.2 |
| 20260504011250 | 39 | 84 | 0.0 | 0.0 | 0.00 | 0.00 | 0.00 | 74 | 1007.2 |
| 20260504011020 | 39 | 84 | 0.0 | 0.0 | 0.00 | 0.00 | 0.00 | 74 | 1007.2 |
| 20260504010800 | 39 | 84 | 0.0 | 0.0 | 0.00 | 0.00 | 0.00 | 73 | 1007.2 |
| 20260504010657 | 39 | 84 | 0.0 | 0.0 | 0.00 | 0.00 | 0.00 | 73 | 1007.2 |
| 20260504010617 | 39 | 84 | 0.0 | 0.0 | 0.00 | 0.00 | 0.00 | 73 | 1007.1 |
| 20260504010558 | 39 | 84 | 0.0 | 0.0 | 0.00 | 0.00 | 0.00 | 73 | 1007.1 |
| 20260504010458 | 39 | 84 | 0.0 | 0.0 | 0.00 | 0.00 | 0.00 | 73 | 1007.1 |
| 20260504010442 | 40 | 85 | 0.0 | 0.0 | 0.00 | 0.00 | 0.00 | 72 | 1007.1 |
| 20260504010435 | 40 | 84 | 0.0 | 0.0 | 0.00 | 0.00 | 0.00 | 72 | 1007.1 |
| 20260504010423 | 40 | 84 | 0.0 | 0.0 | 0.00 | 0.00 | 0.00 | 73 | 1007.1 |
| 20260504010111 | 40 | 84 | 0.0 | 0.0 | 0.00 | 0.00 | 0.00 | 72 | 1007.1 |
| 20260504010051 | 40 | 84 | 0.0 | 0.0 | 0.00 | 0.00 | 0.00 | 72 | 1007.1 |
| 20260504010041 | 40 | 85 | 0.0 | 0.0 | 0.00 | 0.00 | 0.00 | 72 | 1007.0 |
| 20260504010035 | 40 | 84 | 0.0 | 0.0 | 0.00 | 0.00 | 0.00 | 71 | 1007.1 |
| 20260504010024 | 40 | 84 | 0.0 | 0.0 | 0.00 | 0.00 | 0.00 | 72 | 1007.0 |
| 20260504005646 | 40 | 85 | 0.0 | 0.0 | 0.00 | 0.00 | 0.00 | 71 | 1007.0 |
| 20260504005606 | 40 | 84 | 0.0 | 0.0 | 0.00 | 0.00 | 0.00 | 71 | 1007.0 |
| 20260504005546 | 40 | 84 | 0.0 | 0.0 | 0.00 | 0.00 | 0.00 | 71 | 1007.0 |
| 20260504005446 | 40 | 84 | 0.0 | 0.0 | 0.00 | 0.00 | 0.00 | 71 | 1007.0 |
| 20260504005344 | 40 | 84 | 0.0 | 0.0 | 0.00 | 0.00 | 0.00 | 71 | 1007.0 |
| 20260504005243 | 40 | 84 | 0.0 | 0.0 | 0.00 | 0.00 | 0.00 | 71 | 1007.0 |
| 20260504005137 | 40 | 84 | 0.0 | 0.0 | 0.00 | 0.00 | 0.00 | 70 | 1007.0 |
| 20260504005036 | 41 | 84 | 0.0 | 0.0 | 0.00 | 0.00 | 0.00 | 70 | 1006.9 |
| 20260504004935 | 41 | 84 | 0.0 | 0.0 | 0.00 | 0.00 | 0.00 | 70 | 1006.9 |
| 20260504004901 | 41 | 84 | 0.0 | 0.0 | 0.00 | 0.00 | 0.00 | 70 | 1006.9 |
| 20260504004851 | 41 | 84 | 0.0 | 0.0 | 0.00 | 0.00 | 0.00 | 70 | 1006.9 |
| 20260504004628 | 41 | 85 | 0.0 | 0.0 | 0.00 | 0.00 | 0.00 | 70 | 1006.9 |
| 20260504004530 | 41 | 84 | 0.0 | 0.0 | 0.00 | 0.00 | 0.00 | 70 | 1006.9 |
| 20260504004430 | 41 | 84 | 0.0 | 0.0 | 0.00 | 0.00 | 0.00 | 69 | 1006.9 |
| 20260504004329 | 41 | 85 | 0.0 | 0.0 | 0.00 | 0.00 | 0.00 | 68 | 1006.9 |
| 20260504004230 | 41 | 85 | 0.0 | 0.0 | 0.00 | 0.00 | 0.00 | 68 | 1006.8 |
| 20260504004126 | 41 | 84 | 0.0 | 0.0 | 0.00 | 0.00 | 0.00 | 67 | 1006.8 |
| 20260504004023 | 42 | 84 | 0.0 | 0.0 | 0.00 | 0.00 | 0.00 | 66 | 1006.8 |
| 20260504003923 | 42 | 84 | 0.0 | 0.0 | 0.00 | 0.00 | 0.00 | 66 | 1006.8 |
| 20260504003824 | 42 | 84 | 0.0 | 0.0 | 0.00 | 0.00 | 0.00 | 65 | 1006.8 |
| 20260504003722 | 42 | 84 | 0.0 | 0.0 | 0.00 | 0.00 | 0.00 | 65 | 1006.8 |
| 20260504003625 | 42 | 84 | 0.0 | 0.0 | 0.00 | 0.00 | 0.00 | 65 | 1006.8 |
| 20260504003541 | 42 | 84 | 0.0 | 0.0 | 0.00 | 0.00 | 0.00 | 65 | 1006.8 |
| 20260504003522 | 42 | 84 | 0.0 | 0.0 | 0.00 | 0.00 | 0.00 | 65 | 1006.7 |
| 20260504003422 | 42 | 85 | 0.0 | 0.0 | 0.00 | 0.00 | 0.00 | 64 | 1006.8 |
| 20260504003319 | 42 | 85 | 0.0 | 0.0 | 0.00 | 0.00 | 0.00 | 64 | 1006.8 |
| 20260504003218 | 43 | 84 | 0.0 | 0.0 | 0.00 | 0.00 | 0.00 | 64 | 1006.7 |
| 20260504003149 | 43 | 84 | 0.0 | 0.0 | 0.00 | 0.00 | 0.00 | 63 | 1006.7 |
| 20260504003136 | 43 | 84 | 0.0 | 0.0 | 0.00 | 0.00 | 0.00 | 64 | 1006.7 |
| 20260504003125 | 43 | 84 | 0.0 | 0.0 | 0.00 | 0.00 | 0.00 | 64 | 1006.7 |
| 20260504002918 | 43 | 85 | 0.0 | 0.0 | 0.00 | 0.00 | 0.00 | 63 | 1006.8 |
| 20260504002813 | 43 | 84 | 0.0 | 0.0 | 0.00 | 0.00 | 0.00 | 62 | 1006.7 |
| 20260504002712 | 43 | 85 | 0.0 | 0.0 | 0.00 | 0.00 | 0.00 | 62 | 1006.7 |
| 20260504002606 | 44 | 84 | 0.0 | 0.0 | 0.00 | 0.00 | 0.00 | 62 | 1006.7 |
| 20260504002528 | 44 | 85 | 0.0 | 0.0 | 0.00 | 0.00 | 0.00 | 62 | 1006.7 |
| 20260504002507 | 44 | 84 | 0.0 | 0.0 | 0.00 | 0.00 | 0.00 | 62 | 1006.7 |
| 20260504002408 | 44 | 84 | 0.0 | 0.0 | 0.00 | 0.00 | 0.00 | 61 | 1006.7 |
| 20260504002308 | 44 | 85 | 0.0 | 0.0 | 0.00 | 0.00 | 0.00 | 60 | 1006.7 |
| 20260504002207 | 44 | 84 | 0.0 | 0.0 | 0.00 | 0.00 | 0.00 | 61 | 1006.7 |
| 20260504002131 | 44 | 84 | 0.0 | 0.0 | 0.00 | 0.00 | 0.00 | 60 | 1006.6 |
| 20260504002121 | 44 | 84 | 0.0 | 0.0 | 0.00 | 0.00 | 0.00 | 60 | 1006.7 |
| 20260504002110 | 44 | 84 | 0.0 | 0.0 | 0.00 | 0.00 | 0.00 | 60 | 1006.6 |
| 20260504001859 | 45 | 85 | 0.0 | 0.0 | 0.00 | 0.00 | 0.00 | 59 | 1006.6 |
| 20260504001758 | 45 | 85 | 0.0 | 0.0 | 0.00 | 0.00 | 0.00 | 58 | 1006.6 |
| 20260504001700 | 45 | 84 | 0.0 | 0.0 | 0.00 | 0.00 | 0.00 | 57 | 1006.6 |
| 20260504001558 | 45 | 84 | 0.0 | 0.0 | 0.00 | 0.00 | 0.00 | 57 | 1006.6 |
| 20260504001516 | 45 | 84 | 0.0 | 0.0 | 0.00 | 0.00 | 0.00 | 57 | 1006.6 |
| 20260504001457 | 45 | 85 | 0.0 | 0.0 | 0.00 | 0.00 | 0.00 | 57 | 1006.6 |
| 20260504001358 | 45 | 85 | 0.0 | 0.9 | 0.00 | 0.00 | 0.00 | 57 | 1006.6 |
| 20260504001256 | 45 | 84 | 0.0 | 0.9 | 0.00 | 0.00 | 0.00 | 57 | 1006.6 |
| 20260504001155 | 45 | 84 | 0.0 | 0.9 | 0.00 | 0.00 | 0.00 | 57 | 1006.6 |
| 20260504001049 | 45 | 84 | 0.0 | 0.9 | 0.00 | 0.00 | 0.00 | 56 | 1006.5 |
| 20260504001009 | 45 | 85 | 0.0 | 0.9 | 0.00 | 0.00 | 0.00 | 56 | 1006.6 |
| 20260504000949 | 45 | 85 | 0.0 | 0.9 | 0.00 | 0.00 | 0.00 | 56 | 1006.6 |
| 20260504000847 | 45 | 85 | 0.0 | 0.9 | 0.00 | 0.00 | 0.00 | 56 | 1006.5 |
| 20260504000747 | 46 | 85 | 0.0 | 0.9 | 0.00 | 0.00 | 0.00 | 56 | 1006.5 |
| 20260504000648 | 46 | 85 | 0.0 | 0.9 | 0.00 | 0.00 | 0.00 | 56 | 1006.5 |
| 20260504000542 | 46 | 84 | 0.0 | 0.9 | 0.00 | 0.00 | 0.00 | 55 | 1006.5 |
| 20260504000504 | 46 | 85 | 0.0 | 0.9 | 0.00 | 0.00 | 0.00 | 55 | 1006.5 |
| 20260504000442 | 46 | 84 | 0.0 | 0.9 | 0.00 | 0.00 | 0.00 | 55 | 1006.5 |
| 20260504000409 | 46 | 84 | 0.0 | 0.0 | 0.00 | 0.00 | 0.00 | 55 | 1006.5 |
| 20260504000358 | 46 | 84 | 0.0 | 0.0 | 0.00 | 0.00 | 0.00 | 55 | 1006.5 |
| 20260504000141 | 46 | 85 | 0.0 | 0.0 | 0.00 | 0.00 | 0.00 | 55 | 1006.4 |
| 20260504000041 | 46 | 84 | 0.0 | 0.9 | 0.00 | 0.00 | 0.00 | 54 | 1006.4 |
| 20260503235938 | 46 | 85 | 0.0 | 0.9 | 0.00 | 0.00 | 0.00 | 54 | 1006.4 |
| 20260503235841 | 46 | 85 | 0.0 | 0.9 | 0.00 | 0.00 | 0.00 | 54 | 1006.4 |
| 20260503235737 | 47 | 85 | 0.0 | 0.9 | 0.00 | 0.00 | 0.00 | 54 | 1006.5 |
| 20260503235635 | 47 | 85 | 0.0 | 0.9 | 0.00 | 0.00 | 0.00 | 53 | 1006.4 |
| 20260503235553 | 47 | 84 | 0.0 | 0.9 | 0.00 | 0.00 | 0.00 | 53 | 1006.4 |
| 20260503235542 | 47 | 85 | 0.0 | 0.9 | 0.00 | 0.00 | 0.00 | 53 | 1006.4 |
| 20260503235330 | 47 | 84 | 0.0 | 0.9 | 0.00 | 0.00 | 0.00 | 52 | 1006.3 |
| 20260503235229 | 47 | 84 | 0.0 | 0.9 | 0.00 | 0.00 | 0.00 | 52 | 1006.4 |
| 20260503235130 | 47 | 84 | 0.0 | 0.9 | 0.00 | 0.00 | 0.00 | 53 | 1006.4 |
| 20260503235026 | 47 | 85 | 0.0 | 0.9 | 0.00 | 0.00 | 0.00 | 52 | 1006.4 |
| 20260503234924 | 47 | 84 | 0.0 | 0.9 | 0.00 | 0.00 | 0.00 | 51 | 1006.4 |
| 20260503234826 | 47 | 85 | 0.0 | 1.7 | 0.00 | 0.00 | 0.00 | 51 | 1006.4 |
| 20260503234726 | 47 | 85 | 0.0 | 1.7 | 0.00 | 0.00 | 0.00 | 51 | 1006.4 |
| 20260503234644 | 47 | 84 | 0.0 | 1.7 | 0.00 | 0.00 | 0.00 | 50 | 1006.3 |
| 20260503234635 | 47 | 84 | 0.0 | 1.7 | 0.00 | 0.00 | 0.00 | 51 | 1006.3 |
| 20260503234441 | 47 | 84 | 0.0 | 1.7 | 0.00 | 0.00 | 0.00 | 50 | 1006.3 |
| 20260503234418 | 47 | 85 | 0.0 | 1.7 | 0.00 | 0.00 | 0.00 | 50 | 1006.3 |
| 20260503234317 | 47 | 9 | 0.0 | 1.7 | 0.00 | 0.00 | 0.00 | 51 | 1006.3 |
| 20260503234217 | 48 | 266 | 0.0 | 1.7 | 0.00 | 0.00 | 0.00 | 51 | 1006.3 |
| 20260503234118 | 48 | 267 | 0.0 | 1.7 | 0.00 | 0.00 | 0.00 | 50 | 1006.3 |
| 20260503234018 | 48 | 267 | 0.0 | 1.7 | 0.00 | 0.00 | 0.00 | 50 | 1006.3 |
| 20260503233951 | 48 | 0 | 0.0 | 0.9 | 0.00 | 0.00 | 0.00 | 50 | 1006.3 |
| 20260503233944 | 48 | 267 | 0.0 | 1.7 | 0.00 | 0.00 | 0.00 | 51 | 1006.3 |
| 20260503233934 | 48 | 299 | 0.0 | 1.7 | 0.00 | 0.00 | 0.00 | 51 | 1006.3 |
| 20260503233714 | 48 | 0 | 0.0 | 0.9 | 0.00 | 0.00 | 0.00 | 49 | 1006.3 |
| 20260503233612 | 48 | 0 | 0.0 | 0.9 | 0.00 | 0.00 | 0.00 | 50 | 1006.3 |
| 20260503233504 | 48 | 9 | 0.0 | 0.9 | 0.00 | 0.00 | 0.00 | 49 | 1006.2 |
| 20260503233429 | 48 | 8 | 0.0 | 0.9 | 0.00 | 0.00 | 0.00 | 50 | 1006.2 |
| 20260503233407 | 48 | 9 | 0.0 | 0.9 | 0.00 | 0.00 | 0.00 | 50 | 1006.2 |
| 20260503233305 | 48 | 9 | 0.0 | 0.9 | 0.00 | 0.00 | 0.00 | 50 | 1006.2 |
| 20260503233207 | 48 | 8 | 0.0 | 0.9 | 0.00 | 0.00 | 0.00 | 49 | 1006.2 |
| 20260503233106 | 48 | 8 | 0.0 | 0.9 | 0.00 | 0.00 | 0.00 | 49 | 1006.2 |
| 20260503233001 | 48 | 9 | 0.0 | 1.7 | 0.00 | 0.00 | 0.00 | 49 | 1006.1 |
| 20260503232923 | 48 | 8 | 0.0 | 1.7 | 0.00 | 0.00 | 0.00 | 49 | 1006.1 |
| 20260503232858 | 48 | 8 | 0.0 | 1.7 | 0.00 | 0.00 | 0.00 | 48 | 1006.1 |
| 20260503232825 | 48 | 11 | 0.0 | 1.7 | 0.00 | 0.00 | 0.00 | 49 | 1006.1 |
| 20260503232815 | 48 | 9 | 0.0 | 1.7 | 0.00 | 0.00 | 0.00 | 48 | 1006.1 |
| 20260503232558 | 48 | 30 | 0.0 | 1.7 | 0.00 | 0.00 | 0.00 | 49 | 1006.1 |
| 20260503232455 | 49 | 30 | 0.0 | 1.7 | 0.00 | 0.00 | 0.00 | 49 | 1006.1 |
| 20260503232428 | 49 | 30 | 0.0 | 1.7 | 0.00 | 0.00 | 0.00 | 48 | 1006.1 |
| 20260503232421 | 49 | 30 | 0.0 | 1.7 | 0.00 | 0.00 | 0.00 | 49 | 1006.1 |
| 20260503232412 | 49 | 31 | 0.0 | 1.7 | 0.00 | 0.00 | 0.00 | 48 | 1006.1 |
| 20260503232154 | 49 | 30 | 0.0 | 1.7 | 0.00 | 0.00 | 0.00 | 48 | 1006.1 |
| 20260503232055 | 49 | 36 | 0.0 | 6.1 | 0.00 | 0.00 | 0.00 | 47 | 1006.1 |
| 20260503231952 | 49 | 51 | 0.0 | 6.1 | 0.00 | 0.00 | 0.00 | 48 | 1006.1 |
| 20260503231922 | 49 | 53 | 0.0 | 6.1 | 0.00 | 0.00 | 0.00 | 47 | 1006.1 |
| 20260503231852 | 49 | 53 | 0.0 | 6.1 | 0.00 | 0.00 | 0.00 | 47 | 1006.1 |
| 20260503231752 | 49 | 53 | 0.0 | 6.1 | 0.00 | 0.00 | 0.00 | 47 | 1006.1 |
| 20260503231733 | 49 | 267 | 0.0 | 6.1 | 0.00 | 0.00 | 0.00 | 47 | 1006.1 |
| 20260503231729 | 49 | 267 | 0.0 | 6.1 | 0.00 | 0.00 | 0.00 | 47 | 1006.1 |
| 20260503231716 | 49 | 47 | 0.0 | 6.1 | 0.00 | 0.00 | 0.00 | 47 | 1006.1 |
| 20260503231420 | 49 | 267 | 0.9 | 6.1 | 0.00 | 0.00 | 0.00 | 47 | 1006.0 |
| 20260503231342 | 49 | 355 | 0.9 | 6.1 | 0.00 | 0.00 | 0.00 | 47 | 1006.0 |
| 20260503231242 | 49 | 344 | 0.9 | 6.1 | 0.00 | 0.00 | 0.00 | 46 | 1006.0 |
| 20260503231143 | 49 | 280 | 0.9 | 6.1 | 0.00 | 0.00 | 0.00 | 47 | 1006.0 |
| 20260503231042 | 49 | 312 | 0.0 | 2.6 | 0.00 | 0.00 | 0.00 | 47 | 1006.0 |
| 20260503230938 | 49 | 319 | 0.9 | 2.6 | 0.00 | 0.00 | 0.00 | 48 | 1006.0 |
| 20260503230920 | 49 | 319 | 0.9 | 2.6 | 0.00 | 0.00 | 0.00 | 47 | 1006.0 |
| 20260503230841 | 50 | 319 | 0.9 | 2.6 | 0.00 | 0.00 | 0.00 | 47 | 1006.0 |
| 20260503230741 | 50 | 319 | 0.9 | 2.6 | 0.00 | 0.00 | 0.00 | 47 | 1006.0 |
| 20260503230709 | 50 | 319 | 0.9 | 2.6 | 0.00 | 0.00 | 0.00 | 46 | 1006.0 |
| 20260503230546 | 50 | 312 | 0.9 | 2.6 | 0.00 | 0.00 | 0.00 | 45 | 1006.0 |
| 20260503230419 | 50 | 29 | 0.9 | 3.5 | 0.00 | 0.00 | 0.00 | 45 | 1006.0 |
| 20260503230328 | 50 | 293 | 0.9 | 3.5 | 0.00 | 0.00 | 0.00 | 45 | 1005.9 |
| 20260503230229 | 50 | 296 | 0.9 | 4.3 | 0.00 | 0.00 | 0.00 | 46 | 1006.0 |
| 20260503230129 | 50 | 280 | 0.9 | 4.3 | 0.00 | 0.00 | 0.00 | 45 | 1006.0 |
| 20260503230059 | 50 | 13 | 0.9 | 4.3 | 0.00 | 0.00 | 0.00 | 45 | 1005.9 |
| 20260503230052 | 51 | 285 | 0.9 | 4.3 | 0.00 | 0.00 | 0.00 | 45 | 1005.9 |
| 20260503230045 | 51 | 285 | 0.9 | 4.3 | 0.00 | 0.00 | 0.00 | 44 | 1005.9 |
| 20260503230037 | 50 | 66 | 0.9 | 4.3 | 0.00 | 0.00 | 0.00 | 45 | 1005.9 |
| 20260503230013 | 50 | 58 | 0.9 | 4.3 | 0.00 | 0.00 | 0.00 | 45 | 1005.9 |
| 20260503225522 | 51 | 285 | 0.9 | 4.3 | 0.00 | 0.00 | 0.00 | 44 | 1005.9 |
| 20260503225451 | 51 | 64 | 0.9 | 4.3 | 0.00 | 0.00 | 0.00 | 44 | 1005.9 |
| 20260503225435 | 51 | 51 | 0.9 | 4.3 | 0.00 | 0.00 | 0.00 | 44 | 1005.9 |
| 20260503225217 | 51 | 351 | 0.9 | 5.2 | 0.00 | 0.00 | 0.00 | 44 | 1005.8 |
| 20260503225142 | 51 | 281 | 0.9 | 7.8 | 0.00 | 0.00 | 0.00 | 44 | 1005.9 |
| 20260503225133 | 51 | 283 | 0.9 | 5.2 | 0.00 | 0.00 | 0.00 | 44 | 1005.8 |
| 20260503224914 | 50 | 266 | 0.9 | 7.8 | 0.00 | 0.00 | 0.00 | 44 | 1005.8 |
| 20260503224836 | 50 | 266 | 0.9 | 7.8 | 0.00 | 0.00 | 0.00 | 45 | 1005.8 |
| 20260503224712 | 50 | 294 | 0.9 | 7.8 | 0.00 | 0.00 | 0.00 | 44 | 1005.7 |
| 20260503224704 | 50 | 46 | 0.9 | 7.8 | 0.00 | 0.00 | 0.00 | 43 | 1005.7 |
| 20260503224651 | 50 | 294 | 0.9 | 7.8 | 0.00 | 0.00 | 0.00 | 44 | 1005.8 |
| 20260503224518 | 50 | 44 | 0.9 | 7.8 | 0.00 | 0.00 | 0.00 | 43 | 1005.7 |
| 20260503224311 | 50 | 309 | 0.9 | 7.8 | 0.00 | 0.00 | 0.00 | 44 | 1005.8 |
| 20260503224233 | 50 | 282 | 0.9 | 7.8 | 0.00 | 0.00 | 0.00 | 43 | 1005.7 |
| 20260503224224 | 50 | 267 | 0.9 | 7.8 | 0.00 | 0.00 | 0.00 | 44 | 1005.7 |
| 20260503224004 | 50 | 274 | 0.9 | 4.3 | 0.00 | 0.00 | 0.00 | 44 | 1005.7 |
| 20260503223938 | 50 | 291 | 1.7 | 7.8 | 0.00 | 0.00 | 0.00 | 43 | 1005.6 |
| 20260503223928 | 50 | 274 | 1.7 | 7.8 | 0.00 | 0.00 | 0.00 | 44 | 1005.7 |
| 20260503223918 | 50 | 271 | 1.7 | 7.8 | 0.00 | 0.00 | 0.00 | 44 | 1005.7 |
| 20260503223704 | 50 | 307 | 1.7 | 7.8 | 0.00 | 0.00 | 0.00 | 43 | 1005.6 |
| 20260503223602 | 50 | 299 | 1.7 | 7.8 | 0.00 | 0.00 | 0.00 | 43 | 1005.7 |
| 20260503223459 | 50 | 229 | 1.7 | 7.8 | 0.00 | 0.00 | 0.00 | 43 | 1005.7 |
| 20260503223413 | 50 | 281 | 1.7 | 7.8 | 0.00 | 0.00 | 0.00 | 44 | 1005.8 |
| 20260503223355 | 50 | 281 | 1.7 | 7.8 | 0.00 | 0.00 | 0.00 | 44 | 1005.8 |
| 20260503223255 | 50 | 293 | 1.7 | 7.8 | 0.00 | 0.00 | 0.00 | 44 | 1005.7 |
| 20260503223157 | 50 | 316 | 1.7 | 7.8 | 0.00 | 0.00 | 0.00 | 44 | 1005.7 |
| 20260503223057 | 50 | 359 | 1.7 | 7.8 | 0.00 | 0.00 | 0.00 | 44 | 1005.7 |
| 20260503222954 | 50 | 222 | 1.7 | 7.8 | 0.00 | 0.00 | 0.00 | 43 | 1005.7 |
| 20260503222915 | 50 | 276 | 1.7 | 5.2 | 0.00 | 0.00 | 0.00 | 43 | 1005.6 |
| 20260503222847 | 50 | 273 | 1.7 | 5.2 | 0.00 | 0.00 | 0.00 | 43 | 1005.6 |
| 20260503222747 | 50 | 319 | 1.7 | 5.2 | 0.00 | 0.00 | 0.00 | 43 | 1005.7 |
| 20260503222647 | 50 | 255 | 0.9 | 5.2 | 0.00 | 0.00 | 0.00 | 43 | 1005.6 |
| 20260503222549 | 50 | 291 | 0.9 | 5.2 | 0.00 | 0.00 | 0.00 | 43 | 1005.6 |
| 20260503222511 | 50 | 36 | 1.7 | 12.2 | 0.00 | 0.00 | 0.00 | 43 | 1005.6 |
| 20260503222502 | 50 | 96 | 1.7 | 6.1 | 0.00 | 0.00 | 0.00 | 43 | 1005.7 |
| 20260503222448 | 50 | 276 | 1.7 | 6.1 | 0.00 | 0.00 | 0.00 | 43 | 1005.6 |
| 20260503222440 | 50 | 339 | 1.7 | 6.1 | 0.00 | 0.00 | 0.00 | 43 | 1005.6 |
| 20260503222202 | 50 | 58 | 1.7 | 12.2 | 0.00 | 0.00 | 0.00 | 43 | 1005.5 |
| 20260503222020 | 50 | 278 | 1.7 | 12.2 | 0.00 | 0.00 | 0.00 | 43 | 1005.5 |
| 20260503222007 | 50 | 50 | 1.7 | 12.2 | 0.00 | 0.00 | 0.00 | 42 | 1005.5 |
| 20260503221956 | 50 | 84 | 1.7 | 12.2 | 0.00 | 0.00 | 0.00 | 43 | 1005.5 |
| 20260503221744 | 50 | 47 | 2.6 | 12.2 | 0.00 | 0.00 | 0.00 | 43 | 1005.5 |
| 20260503221710 | 50 | 304 | 2.6 | 12.2 | 0.00 | 0.00 | 0.00 | 43 | 1005.5 |
| 20260503221658 | 50 | 53 | 2.6 | 12.2 | 0.00 | 0.00 | 0.00 | 42 | 1005.5 |
| 20260503221441 | 50 | 23 | 2.6 | 12.2 | 0.00 | 0.00 | 0.00 | 42 | 1005.4 |
| 20260503221415 | 50 | 325 | 2.6 | 12.2 | 0.00 | 0.00 | 0.00 | 42 | 1005.4 |
| 20260503221341 | 50 | 280 | 2.6 | 12.2 | 0.00 | 0.00 | 0.00 | 42 | 1005.4 |
| 20260503221309 | 51 | 330 | 2.6 | 8.7 | 0.00 | 0.00 | 0.00 | 42 | 1005.4 |
| 20260503221257 | 50 | 44 | 2.6 | 8.7 | 0.00 | 0.00 | 0.00 | 42 | 1005.4 |
| 20260503221041 | 51 | 51 | 2.6 | 8.7 | 0.00 | 0.00 | 0.00 | 41 | 1005.4 |
| 20260503220942 | 51 | 60 | 2.6 | 8.7 | 0.00 | 0.00 | 0.00 | 42 | 1005.5 |
| 20260503220915 | 51 | 53 | 2.6 | 8.7 | 0.00 | 0.00 | 0.00 | 42 | 1005.5 |
| 20260503220838 | 51 | 291 | 2.6 | 8.7 | 0.00 | 0.00 | 0.00 | 43 | 1005.5 |
| 20260503220739 | 51 | 297 | 2.6 | 7.8 | 0.00 | 0.00 | 0.00 | 43 | 1005.5 |
| 20260503220636 | 51 | 305 | 2.6 | 7.8 | 0.00 | 0.00 | 0.00 | 42 | 1005.5 |
| 20260503220602 | 51 | 231 | 2.6 | 9.6 | 0.00 | 0.00 | 0.00 | 42 | 1005.4 |
| 20260503220553 | 51 | 298 | 2.6 | 7.8 | 0.00 | 0.00 | 0.00 | 41 | 1005.4 |
| 20260503220413 | 51 | 271 | 2.6 | 9.6 | 0.00 | 0.00 | 0.00 | 43 | 1005.3 |
| 20260503220336 | 51 | 349 | 2.6 | 9.6 | 0.00 | 0.00 | 0.00 | 43 | 1005.3 |
| 20260503220234 | 51 | 297 | 2.6 | 9.6 | 0.00 | 0.00 | 0.00 | 41 | 1005.3 |
| 20260503220134 | 51 | 38 | 2.6 | 9.6 | 0.00 | 0.00 | 0.00 | 42 | 1005.3 |
| 20260503220033 | 51 | 305 | 2.6 | 9.6 | 0.00 | 0.00 | 0.00 | 42 | 1005.3 |
| 20260503215934 | 51 | 312 | 1.7 | 9.6 | 0.00 | 0.00 | 0.00 | 42 | 1005.4 |
| 20260503215916 | 51 | 300 | 1.7 | 9.6 | 0.00 | 0.00 | 0.00 | 42 | 1005.4 |
| 20260503215832 | 51 | 33 | 1.7 | 9.6 | 0.00 | 0.00 | 0.00 | 41 | 1005.4 |
| 20260503215732 | 51 | 297 | 1.7 | 9.6 | 0.00 | 0.00 | 0.00 | 41 | 1005.4 |
| 20260503215708 | 51 | 297 | 0.9 | 6.1 | 0.00 | 0.00 | 0.00 | 41 | 1005.3 |
| 20260503215701 | 51 | 294 | 0.9 | 5.2 | 0.00 | 0.00 | 0.00 | 42 | 1005.3 |
| 20260503215650 | 51 | 308 | 1.7 | 9.6 | 0.00 | 0.00 | 0.00 | 41 | 1005.3 |
| 20260503215635 | 51 | 280 | 1.7 | 9.6 | 0.00 | 0.00 | 0.00 | 41 | 1005.4 |
| 20260503215328 | 51 | 58 | 0.9 | 5.2 | 0.00 | 0.00 | 0.00 | 42 | 1005.3 |
| 20260503215226 | 51 | 81 | 0.9 | 5.2 | 0.00 | 0.00 | 0.00 | 42 | 1005.3 |
| 20260503215128 | 51 | 270 | 0.9 | 5.2 | 0.00 | 0.00 | 0.00 | 42 | 1005.3 |
| 20260503215026 | 51 | 288 | 1.7 | 5.2 | 0.00 | 0.00 | 0.00 | 42 | 1005.2 |
| 20260503214926 | 51 | 210 | 1.7 | 5.2 | 0.00 | 0.00 | 0.00 | 43 | 1005.3 |
| 20260503214901 | 51 | 211 | 1.7 | 5.2 | 0.00 | 0.00 | 0.00 | 43 | 1005.3 |
| 20260503214849 | 51 | 327 | 1.7 | 10.4 | 0.00 | 0.00 | 0.00 | 43 | 1005.2 |
| 20260503214839 | 51 | 299 | 1.7 | 10.4 | 0.00 | 0.00 | 0.00 | 42 | 1005.3 |
| 20260503214544 | 51 | 34 | 1.7 | 10.4 | 0.00 | 0.00 | 0.00 | 42 | 1005.2 |
| 20260503214536 | 51 | 191 | 1.7 | 10.4 | 0.00 | 0.00 | 0.00 | 42 | 1005.3 |
| 20260503214357 | 51 | 308 | 1.7 | 10.4 | 0.00 | 0.00 | 0.00 | 42 | 1005.2 |
| 20260503214318 | 51 | 82 | 1.7 | 10.4 | 0.00 | 0.00 | 0.00 | 41 | 1005.2 |
| 20260503214239 | 51 | 64 | 1.7 | 10.4 | 0.00 | 0.00 | 0.00 | 42 | 1005.2 |
| 20260503214230 | 51 | 71 | 1.7 | 10.4 | 0.00 | 0.00 | 0.00 | 42 | 1005.3 |
| 20260503214011 | 51 | 291 | 1.7 | 10.4 | 0.00 | 0.00 | 0.00 | 40 | 1005.2 |
| 20260503213911 | 51 | 278 | 1.7 | 10.4 | 0.00 | 0.00 | 0.00 | 40 | 1005.2 |
| 20260503213851 | 51 | 249 | 1.7 | 10.4 | 0.00 | 0.00 | 0.00 | 41 | 1005.2 |
| 20260503213810 | 51 | 46 | 1.7 | 7.0 | 0.00 | 0.00 | 0.00 | 41 | 1005.1 |
| 20260503213708 | 51 | 47 | 1.7 | 7.0 | 0.00 | 0.00 | 0.00 | 41 | 1005.2 |
| 20260503213606 | 51 | 297 | 1.7 | 7.0 | 0.00 | 0.00 | 0.00 | 42 | 1005.2 |
| 20260503213507 | 51 | 38 | 1.7 | 7.0 | 0.00 | 0.00 | 0.00 | 42 | 1005.2 |
| 20260503213409 | 51 | 309 | 1.7 | 6.1 | 0.00 | 0.00 | 0.00 | 41 | 1005.1 |
| 20260503213344 | 51 | 280 | 1.7 | 6.1 | 0.00 | 0.00 | 0.00 | 42 | 1005.1 |
| 20260503213304 | 51 | 294 | 1.7 | 6.1 | 0.00 | 0.00 | 0.00 | 42 | 1005.1 |
| 20260503213203 | 51 | 55 | 1.7 | 11.3 | 0.00 | 0.00 | 0.00 | 41 | 1005.1 |
| 20260503213056 | 51 | 283 | 1.7 | 11.3 | 0.00 | 0.00 | 0.00 | 41 | 1005.1 |
| 20260503212958 | 51 | 321 | 1.7 | 11.3 | 0.00 | 0.00 | 0.00 | 42 | 1005.2 |
| 20260503212858 | 51 | 273 | 1.7 | 11.3 | 0.00 | 0.00 | 0.00 | 42 | 1005.1 |
| 20260503212840 | 51 | 39 | 1.7 | 11.3 | 0.00 | 0.00 | 0.00 | 42 | 1005.1 |
| 20260503212757 | 51 | 280 | 1.7 | 11.3 | 0.00 | 0.00 | 0.00 | 44 | 1005.1 |
| 20260503212723 | 51 | 51 | 2.6 | 11.3 | 0.00 | 0.00 | 0.00 | 42 | 1005.1 |
| 20260503212715 | 51 | 302 | 1.7 | 11.3 | 0.00 | 0.00 | 0.00 | 42 | 1005.0 |
| 20260503212711 | 51 | 271 | 1.7 | 10.4 | 0.00 | 0.00 | 0.00 | 43 | 1005.0 |
| 20260503212703 | 51 | 86 | 1.7 | 11.3 | 0.00 | 0.00 | 0.00 | 42 | 1005.2 |
| 20260503212646 | 51 | 351 | 1.7 | 11.3 | 0.00 | 0.00 | 0.00 | 43 | 1005.1 |
| 20260503212631 | 51 | 64 | 1.7 | 11.3 | 0.00 | 0.00 | 0.00 | 44 | 1005.1 |
| 20260503212213 | 51 | 82 | 2.6 | 8.7 | 0.00 | 0.00 | 0.00 | 42 | 1005.0 |
| 20260503212203 | 51 | 40 | 2.6 | 7.0 | 0.00 | 0.00 | 0.00 | 42 | 1005.0 |
| 20260503212015 | 51 | 299 | 1.7 | 8.7 | 0.00 | 0.00 | 0.00 | 43 | 1005.0 |
| 20260503212005 | 51 | 349 | 2.6 | 8.7 | 0.00 | 0.00 | 0.00 | 42 | 1005.2 |
| 20260503211824 | 51 | 43 | 1.7 | 8.7 | 0.00 | 0.00 | 0.00 | 42 | 1005.1 |
| 20260503211811 | 51 | 288 | 1.7 | 8.7 | 0.00 | 0.00 | 0.00 | 43 | 1005.0 |
| 20260503211802 | 51 | 39 | 1.7 | 8.7 | 0.00 | 0.00 | 0.00 | 42 | 1005.1 |
| 20260503211605 | 51 | 32 | 1.7 | 8.7 | 0.00 | 0.00 | 0.00 | 42 | 1005.0 |
| 20260503211556 | 51 | 325 | 1.7 | 8.7 | 0.00 | 0.00 | 0.00 | 42 | 1005.0 |
| 20260503211338 | 51 | 77 | 1.7 | 8.7 | 0.00 | 0.00 | 0.00 | 42 | 1004.9 |
| 20260503211320 | 51 | 81 | 1.7 | 8.7 | 0.00 | 0.00 | 0.00 | 42 | 1004.9 |
| 20260503211239 | 51 | 294 | 1.7 | 8.7 | 0.00 | 0.00 | 0.00 | 42 | 1004.9 |
| 20260503211138 | 51 | 288 | 1.7 | 6.1 | 0.00 | 0.00 | 0.00 | 42 | 1004.9 |
| 20260503211032 | 51 | 125 | 1.7 | 6.1 | 0.00 | 0.00 | 0.00 | 42 | 1004.9 |
| 20260503211001 | 51 | 18 | 1.7 | 6.1 | 0.00 | 0.00 | 0.00 | 43 | 1004.9 |
| 20260503210952 | 51 | 297 | 1.7 | 6.1 | 0.00 | 0.00 | 0.00 | 43 | 1005.0 |
| 20260503210813 | 51 | 53 | 1.7 | 6.1 | 0.00 | 0.00 | 0.00 | 43 | 1004.8 |
| 20260503210732 | 51 | 271 | 1.7 | 6.1 | 0.00 | 0.00 | 0.00 | 42 | 1004.8 |
| 20260503210634 | 51 | 300 | 0.9 | 6.1 | 0.00 | 0.00 | 0.00 | 43 | 1004.8 |
| 20260503210605 | 51 | 44 | 0.9 | 6.1 | 0.00 | 0.00 | 0.00 | 42 | 1004.7 |
| 20260503210600 | 51 | 46 | 0.9 | 6.1 | 0.00 | 0.00 | 0.00 | 42 | 1004.7 |
| 20260503210550 | 51 | 307 | 0.9 | 6.1 | 0.00 | 0.00 | 0.00 | 43 | 1004.7 |
| 20260503210535 | 51 | 299 | 0.9 | 6.1 | 0.00 | 0.00 | 0.00 | 43 | 1004.7 |
| 20260503210226 | 51 | 88 | 0.9 | 6.1 | 0.00 | 0.00 | 0.00 | 42 | 1004.7 |
| 20260503210127 | 51 | 236 | 0.9 | 6.1 | 0.00 | 0.00 | 0.00 | 44 | 1004.7 |
| 20260503210026 | 51 | 50 | 0.9 | 6.1 | 0.00 | 0.00 | 0.00 | 44 | 1004.7 |
| 20260503205924 | 51 | 30 | 0.9 | 6.1 | 0.00 | 0.00 | 0.00 | 44 | 1004.7 |
| 20260503205827 | 51 | 37 | 0.9 | 6.1 | 0.00 | 0.00 | 0.00 | 43 | 1004.6 |
| 20260503205802 | 51 | 36 | 0.9 | 6.1 | 0.00 | 0.00 | 0.00 | 43 | 1004.6 |
| 20260503205722 | 51 | 36 | 0.9 | 6.1 | 0.00 | 0.00 | 0.00 | 43 | 1004.6 |
| 20260503205623 | 51 | 33 | 0.9 | 6.1 | 0.00 | 0.00 | 0.00 | 43 | 1004.7 |
| 20260503205515 | 51 | 281 | 0.9 | 6.1 | 0.00 | 0.00 | 0.00 | 42 | 1004.7 |
| 20260503205415 | 51 | 39 | 0.9 | 6.1 | 0.00 | 0.00 | 0.00 | 42 | 1004.6 |
| 20260503205315 | 51 | 338 | 1.7 | 7.0 | 0.00 | 0.00 | 0.00 | 42 | 1004.6 |
| 20260503205256 | 51 | 316 | 1.7 | 7.0 | 0.00 | 0.00 | 0.00 | 42 | 1004.6 |